Wetterdaten: Freitag, 01.07.2016
Datum Zeit Temp. A. Feuchte A. Luftdruck Regen Wind Richtung Richtung Sonnenschein ET UV Solar Taupunkt Windchill Windben Empfang
01.07.2016 00:00 16,5 C 91 % 1015,2 hPa 0,0 l/m 3,6 km/h (1 Bft) S 180 0 min 0,000 mm 0,0 UV-I 0 W/m 15,0 C 16,5 C 6,4 km/h (2 Bft) 100,00 %
01.07.2016 00:02 16,4 C 92 % 1015,3 hPa 0,0 l/m 4,5 km/h (1 Bft) S-SW 212 0 min 0,000 mm 0,0 UV-I 0 W/m 15,1 C 16,4 C 6,4 km/h (2 Bft) 97,50 %
01.07.2016 00:04 16,4 C 92 % 1015,3 hPa 0,0 l/m 4,9 km/h (1 Bft) S-SW 213 0 min 0,000 mm 0,0 UV-I 0 W/m 15,1 C 16,4 C 6,4 km/h (2 Bft) 100,00 %
01.07.2016 00:06 16,5 C 92 % 1015,4 hPa 0,0 l/m 4,9 km/h (1 Bft) SW 228 0 min 0,000 mm 0,0 UV-I 0 W/m 15,2 C 16,5 C 6,4 km/h (2 Bft) 100,00 %
01.07.2016 00:08 16,5 C 92 % 1015,4 hPa 0,0 l/m 4,8 km/h (1 Bft) S-SW 212 0 min 0,000 mm 0,0 UV-I 0 W/m 15,2 C 16,5 C 6,4 km/h (2 Bft) 100,00 %
01.07.2016 00:10 16,5 C 92 % 1015,4 hPa 0,0 l/m 4,7 km/h (1 Bft) SW 225 0 min 0,000 mm 0,0 UV-I 0 W/m 15,2 C 16,5 C 8,0 km/h (2 Bft) 100,00 %
01.07.2016 00:12 16,6 C 91 % 1015,4 hPa 0,0 l/m 3,0 km/h (1 Bft) S-SW 210 0 min 0,000 mm 0,0 UV-I 0 W/m 15,1 C 16,6 C 4,8 km/h (1 Bft) 97,87 %
01.07.2016 00:14 16,6 C 91 % 1015,4 hPa 0,0 l/m 3,7 km/h (1 Bft) S-SW 210 0 min 0,000 mm 0,0 UV-I 0 W/m 15,1 C 16,6 C 4,8 km/h (1 Bft) 100,00 %
01.07.2016 00:16 16,6 C 91 % 1015,4 hPa 0,0 l/m 4,6 km/h (1 Bft) SW 215 0 min 0,000 mm 0,0 UV-I 0 W/m 15,1 C 16,6 C 6,4 km/h (2 Bft) 100,00 %
01.07.2016 00:18 16,6 C 91 % 1015,5 hPa 0,0 l/m 5,4 km/h (1 Bft) SW 218 0 min 0,000 mm 0,0 UV-I 0 W/m 15,1 C 16,6 C 6,4 km/h (2 Bft) 100,00 %
01.07.2016 00:20 16,6 C 91 % 1015,5 hPa 0,0 l/m 4,8 km/h (1 Bft) S-SW 212 0 min 0,000 mm 0,0 UV-I 0 W/m 15,1 C 16,6 C 6,4 km/h (2 Bft) 97,87 %
01.07.2016 00:22 16,6 C 91 % 1015,5 hPa 0,0 l/m 5,0 km/h (1 Bft) SW 229 0 min 0,000 mm 0,0 UV-I 0 W/m 15,1 C 16,6 C 8,0 km/h (2 Bft) 100,00 %
01.07.2016 00:24 16,6 C 91 % 1015,6 hPa 0,0 l/m 4,7 km/h (1 Bft) S-SW 200 0 min 0,000 mm 0,0 UV-I 0 W/m 15,1 C 16,6 C 6,4 km/h (2 Bft) 100,00 %
01.07.2016 00:26 16,5 C 91 % 1015,6 hPa 0,0 l/m 4,7 km/h (1 Bft) SW 231 0 min 0,000 mm 0,0 UV-I 0 W/m 15,0 C 16,5 C 6,4 km/h (2 Bft) 100,00 %
01.07.2016 00:28 16,5 C 91 % 1015,5 hPa 0,0 l/m 3,6 km/h (1 Bft) S-SW 213 0 min 0,000 mm 0,0 UV-I 0 W/m 15,0 C 16,5 C 6,4 km/h (2 Bft) 100,00 %
01.07.2016 00:30 16,5 C 91 % 1015,6 hPa 0,0 l/m 4,3 km/h (1 Bft) SW 217 0 min 0,000 mm 0,0 UV-I 0 W/m 15,0 C 16,5 C 6,4 km/h (2 Bft) 97,92 %
01.07.2016 00:32 16,5 C 91 % 1015,6 hPa 0,0 l/m 6,0 km/h (2 Bft) S 188 0 min 0,000 mm 0,0 UV-I 0 W/m 15,0 C 16,5 C 9,7 km/h (2 Bft) 97,92 %
01.07.2016 00:34 16,6 C 91 % 1015,6 hPa 0,0 l/m 5,0 km/h (1 Bft) S-SW 198 0 min 0,000 mm 0,0 UV-I 0 W/m 15,1 C 16,6 C 8,0 km/h (2 Bft) 100,00 %
01.07.2016 00:36 16,6 C 91 % 1015,6 hPa 0,0 l/m 3,8 km/h (1 Bft) S-SW 199 0 min 0,000 mm 0,0 UV-I 0 W/m 15,1 C 16,6 C 4,8 km/h (1 Bft) 100,00 %
01.07.2016 00:38 16,6 C 91 % 1015,6 hPa 0,0 l/m 3,2 km/h (1 Bft) S-SW 199 0 min 0,000 mm 0,0 UV-I 0 W/m 15,1 C 16,6 C 4,8 km/h (1 Bft) 97,87 %
01.07.2016 00:40 16,6 C 91 % 1015,7 hPa 0,0 l/m 4,2 km/h (1 Bft) S-SW 199 0 min 0,000 mm 0,0 UV-I 0 W/m 15,1 C 16,6 C 4,8 km/h (1 Bft) 97,87 %
01.07.2016 00:42 16,6 C 91 % 1015,7 hPa 0,0 l/m 1,0 km/h (0 Bft) S-SW 199 0 min 0,000 mm 0,0 UV-I 0 W/m 15,1 C 16,6 C 3,2 km/h (1 Bft) 100,00 %
01.07.2016 00:44 16,6 C 91 % 1015,7 hPa 0,0 l/m 1,1 km/h (1 Bft) S-SW 199 0 min 0,000 mm 0,0 UV-I 0 W/m 15,1 C 16,6 C 3,2 km/h (1 Bft) 97,87 %
01.07.2016 00:46 16,6 C 91 % 1015,7 hPa 0,0 l/m 0,5 km/h (0 Bft) S-SW 199 0 min 0,000 mm 0,0 UV-I 0 W/m 15,1 C 16,6 C 1,6 km/h (1 Bft) 95,74 %
01.07.2016 00:48 16,6 C 91 % 1015,7 hPa 0,0 l/m 1,2 km/h (1 Bft) S 190 0 min 0,000 mm 0,0 UV-I 0 W/m 15,1 C 16,6 C 3,2 km/h (1 Bft) 97,87 %
01.07.2016 00:50 16,6 C 91 % 1015,7 hPa 0,0 l/m 1,3 km/h (1 Bft) S 187 0 min 0,000 mm 0,0 UV-I 0 W/m 15,1 C 16,6 C 3,2 km/h (1 Bft) 95,74 %
01.07.2016 00:52 16,6 C 91 % 1015,7 hPa 0,0 l/m 1,2 km/h (1 Bft) S 187 0 min 0,000 mm 0,0 UV-I 0 W/m 15,1 C 16,6 C 3,2 km/h (1 Bft) 95,74 %
01.07.2016 00:54 16,6 C 91 % 1015,7 hPa 0,0 l/m 2,0 km/h (1 Bft) S 187 0 min 0,000 mm 0,0 UV-I 0 W/m 15,1 C 16,6 C 4,8 km/h (1 Bft) 97,87 %
01.07.2016 00:56 16,6 C 91 % 1015,7 hPa 0,0 l/m 2,9 km/h (1 Bft) S 188 0 min 0,000 mm 0,0 UV-I 0 W/m 15,1 C 16,6 C 4,8 km/h (1 Bft) 97,87 %
01.07.2016 00:58 16,6 C 91 % 1015,7 hPa 0,0 l/m 2,5 km/h (1 Bft) S 188 0 min 0,000 mm 0,0 UV-I 0 W/m 15,1 C 16,6 C 3,2 km/h (1 Bft) 91,49 %
01.07.2016 01:00 16,5 C 91 % 1015,7 hPa 0,0 l/m 2,4 km/h (1 Bft) S 188 0 min 0,000 mm 0,0 UV-I 0 W/m 15,0 C 16,5 C 3,2 km/h (1 Bft) 95,74 %
01.07.2016 01:02 16,5 C 91 % 1015,7 hPa 0,0 l/m 1,5 km/h (1 Bft) S 188 0 min 0,000 mm 0,0 UV-I 0 W/m 15,0 C 16,5 C 3,2 km/h (1 Bft) 97,14 %
01.07.2016 01:04 16,5 C 91 % 1015,7 hPa 0,0 l/m 0,7 km/h (0 Bft) S 188 0 min 0,000 mm 0,0 UV-I 0 W/m 15,0 C 16,5 C 1,6 km/h (1 Bft) 93,62 %
01.07.2016 01:06 16,4 C 91 % 1015,7 hPa 0,0 l/m 1,0 km/h (0 Bft) S 188 0 min 0,000 mm 0,0 UV-I 0 W/m 14,9 C 16,4 C 3,2 km/h (1 Bft) 95,83 %
01.07.2016 01:08 16,4 C 91 % 1015,7 hPa 0,0 l/m 1,3 km/h (1 Bft) S 185 0 min 0,000 mm 0,0 UV-I 0 W/m 14,9 C 16,4 C 3,2 km/h (1 Bft) 97,87 %
01.07.2016 01:10 16,4 C 92 % 1015,6 hPa 0,0 l/m 0,7 km/h (0 Bft) S 185 0 min 0,000 mm 0,0 UV-I 0 W/m 15,1 C 16,4 C 1,6 km/h (1 Bft) 94,00 %
01.07.2016 01:12 16,4 C 92 % 1015,6 hPa 0,0 l/m 1,6 km/h (1 Bft) S 177 0 min 0,000 mm 0,0 UV-I 0 W/m 15,1 C 16,4 C 3,2 km/h (1 Bft) 98,00 %
01.07.2016 01:14 16,4 C 91 % 1015,6 hPa 0,0 l/m 2,6 km/h (1 Bft) S-SO 167 0 min 0,000 mm 0,0 UV-I 0 W/m 14,9 C 16,4 C 6,4 km/h (2 Bft) 95,74 %
01.07.2016 01:16 16,4 C 91 % 1015,6 hPa 0,0 l/m 2,7 km/h (1 Bft) S-SO 163 0 min 0,000 mm 0,0 UV-I 0 W/m 14,9 C 16,4 C 8,0 km/h (2 Bft) 95,74 %
01.07.2016 01:18 16,4 C 91 % 1015,5 hPa 0,0 l/m 3,9 km/h (1 Bft) S-SO 161 0 min 0,000 mm 0,0 UV-I 0 W/m 14,9 C 16,4 C 8,0 km/h (2 Bft) 97,87 %
01.07.2016 01:20 16,4 C 91 % 1015,5 hPa 0,0 l/m 3,9 km/h (1 Bft) S-SO 161 0 min 0,000 mm 0,0 UV-I 0 W/m 14,9 C 16,4 C 6,4 km/h (2 Bft) 97,87 %
01.07.2016 01:22 16,3 C 91 % 1015,5 hPa 0,0 l/m 4,7 km/h (1 Bft) SO 129 0 min 0,000 mm 0,0 UV-I 0 W/m 14,8 C 16,3 C 8,0 km/h (2 Bft) 97,87 %
01.07.2016 01:24 16,3 C 91 % 1015,5 hPa 0,0 l/m 4,8 km/h (1 Bft) SO 146 0 min 0,000 mm 0,0 UV-I 0 W/m 14,8 C 16,3 C 8,0 km/h (2 Bft) 97,87 %
01.07.2016 01:26 16,3 C 92 % 1015,5 hPa 0,0 l/m 3,4 km/h (1 Bft) S-SO 147 0 min 0,000 mm 0,0 UV-I 0 W/m 15,0 C 16,3 C 6,4 km/h (2 Bft) 100,00 %
01.07.2016 01:28 16,3 C 92 % 1015,5 hPa 0,0 l/m 4,4 km/h (1 Bft) O-SO 123 0 min 0,000 mm 0,0 UV-I 0 W/m 15,0 C 16,3 C 9,7 km/h (2 Bft) 97,87 %
01.07.2016 01:30 16,3 C 92 % 1015,5 hPa 0,0 l/m 4,1 km/h (1 Bft) SO 146 0 min 0,000 mm 0,0 UV-I 0 W/m 15,0 C 16,3 C 8,0 km/h (2 Bft) 100,00 %
01.07.2016 01:32 16,3 C 92 % 1015,5 hPa 0,0 l/m 1,9 km/h (1 Bft) S-SO 147 0 min 0,000 mm 0,0 UV-I 0 W/m 15,0 C 16,3 C 3,2 km/h (1 Bft) 100,00 %
01.07.2016 01:34 16,2 C 92 % 1015,5 hPa 0,0 l/m 2,5 km/h (1 Bft) S-SO 147 0 min 0,000 mm 0,0 UV-I 0 W/m 14,9 C 16,2 C 6,4 km/h (2 Bft) 100,00 %
01.07.2016 01:36 16,2 C 92 % 1015,5 hPa 0,0 l/m 3,2 km/h (1 Bft) S-SO 155 0 min 0,000 mm 0,0 UV-I 0 W/m 14,9 C 16,2 C 8,0 km/h (2 Bft) 100,00 %
01.07.2016 01:38 16,2 C 92 % 1015,4 hPa 0,0 l/m 2,9 km/h (1 Bft) S-SO 151 0 min 0,000 mm 0,0 UV-I 0 W/m 14,9 C 16,2 C 4,8 km/h (1 Bft) 97,37 %
01.07.2016 01:40 16,2 C 92 % 1015,4 hPa 0,0 l/m 3,1 km/h (1 Bft) S-SO 157 0 min 0,000 mm 0,0 UV-I 0 W/m 14,9 C 16,2 C 4,8 km/h (1 Bft) 100,00 %
01.07.2016 01:42 16,2 C 92 % 1015,6 hPa 0,0 l/m 1,7 km/h (1 Bft) S-SO 155 0 min 0,000 mm 0,0 UV-I 0 W/m 14,9 C 16,2 C 3,2 km/h (1 Bft) 97,87 %
01.07.2016 01:44 16,2 C 92 % 1015,6 hPa 0,0 l/m 2,7 km/h (1 Bft) S-SO 148 0 min 0,000 mm 0,0 UV-I 0 W/m 14,9 C 16,2 C 6,4 km/h (2 Bft) 100,00 %
01.07.2016 01:46 16,2 C 92 % 1015,6 hPa 0,0 l/m 1,3 km/h (1 Bft) S-SO 148 0 min 0,000 mm 0,0 UV-I 0 W/m 14,9 C 16,2 C 3,2 km/h (1 Bft) 100,00 %
01.07.2016 01:48 16,2 C 92 % 1015,6 hPa 0,0 l/m 0,2 km/h (0 Bft) S-SO 148 0 min 0,000 mm 0,0 UV-I 0 W/m 14,9 C 16,2 C 1,6 km/h (1 Bft) 100,00 %
01.07.2016 01:50 16,2 C 92 % 1015,6 hPa 0,0 l/m 0,4 km/h (0 Bft) S-SO 148 0 min 0,000 mm 0,0 UV-I 0 W/m 14,9 C 16,2 C 1,6 km/h (1 Bft) 100,00 %
01.07.2016 01:52 16,2 C 92 % 1015,6 hPa 0,0 l/m 1,2 km/h (1 Bft) S-SO 148 0 min 0,000 mm 0,0 UV-I 0 W/m 14,9 C 16,2 C 3,2 km/h (1 Bft) 100,00 %
01.07.2016 01:54 16,2 C 92 % 1015,6 hPa 0,0 l/m 1,4 km/h (1 Bft) S-SO 148 0 min 0,000 mm 0,0 UV-I 0 W/m 14,9 C 16,2 C 3,2 km/h (1 Bft) 98,00 %
01.07.2016 01:56 16,2 C 92 % 1015,6 hPa 0,0 l/m 0,2 km/h (0 Bft) S-SO 148 0 min 0,000 mm 0,0 UV-I 0 W/m 14,9 C 16,2 C 1,6 km/h (1 Bft) 100,00 %
01.07.2016 01:58 16,2 C 92 % 1015,6 hPa 0,0 l/m 0,6 km/h (0 Bft) S-SO 148 0 min 0,000 mm 0,0 UV-I 0 W/m 14,9 C 16,2 C 3,2 km/h (1 Bft) 100,00 %
01.07.2016 02:00 16,1 C 92 % 1015,6 hPa 0,0 l/m 0,7 km/h (0 Bft) S-SO 148 0 min 0,000 mm 0,0 UV-I 0 W/m 14,8 C 16,1 C 1,6 km/h (1 Bft) 100,00 %
01.07.2016 02:02 16,1 C 92 % 1015,6 hPa 0,0 l/m 0,3 km/h (0 Bft) S-SO 148 0 min 0,000 mm 0,0 UV-I 0 W/m 14,8 C 16,1 C 1,6 km/h (1 Bft) 97,87 %
01.07.2016 02:04 16,1 C 92 % 1015,7 hPa 0,0 l/m 1,5 km/h (1 Bft) S-SO 148 0 min 0,000 mm 0,0 UV-I 0 W/m 14,8 C 16,1 C 3,2 km/h (1 Bft) 100,00 %
01.07.2016 02:06 16,1 C 92 % 1015,6 hPa 0,0 l/m 1,7 km/h (1 Bft) S-SO 148 0 min 0,000 mm 0,0 UV-I 0 W/m 14,8 C 16,1 C 3,2 km/h (1 Bft) 97,87 %
01.07.2016 02:08 15,9 C 92 % 1015,6 hPa 0,0 l/m 0,3 km/h (0 Bft) S-SO 148 0 min 0,000 mm 0,0 UV-I 0 W/m 14,6 C 15,9 C 1,6 km/h (1 Bft) 100,00 %
01.07.2016 02:10 15,9 C 92 % 1015,7 hPa 0,0 l/m 0,0 km/h (0 Bft) S-SO 148 0 min 0,000 mm 0,0 UV-I 0 W/m 14,6 C 15,9 C 0,0 km/h (0 Bft) 97,87 %
01.07.2016 02:12 15,9 C 93 % 1015,7 hPa 0,0 l/m 0,0 km/h (0 Bft) S-SO 148 0 min 0,000 mm 0,0 UV-I 0 W/m 14,8 C 15,9 C 1,6 km/h (1 Bft) 97,87 %
01.07.2016 02:14 15,9 C 93 % 1015,7 hPa 0,0 l/m 0,0 km/h (0 Bft) S-SO 148 0 min 0,000 mm 0,0 UV-I 0 W/m 14,8 C 15,9 C 0,0 km/h (0 Bft) 100,00 %
01.07.2016 02:16 15,9 C 93 % 1015,8 hPa 0,0 l/m 0,6 km/h (0 Bft) S-SO 148 0 min 0,000 mm 0,0 UV-I 0 W/m 14,8 C 15,9 C 3,2 km/h (1 Bft) 93,62 %
01.07.2016 02:18 15,9 C 93 % 1015,7 hPa 0,0 l/m 1,8 km/h (1 Bft) S-SO 148 0 min 0,000 mm 0,0 UV-I 0 W/m 14,8 C 15,9 C 3,2 km/h (1 Bft) 100,00 %
01.07.2016 02:20 15,8 C 93 % 1015,8 hPa 0,0 l/m 2,5 km/h (1 Bft) S-SO 153 0 min 0,000 mm 0,0 UV-I 0 W/m 14,7 C 15,8 C 4,8 km/h (1 Bft) 100,00 %
01.07.2016 02:22 15,8 C 93 % 1015,7 hPa 0,0 l/m 3,2 km/h (1 Bft) S-SO 162 0 min 0,000 mm 0,0 UV-I 0 W/m 14,7 C 15,8 C 6,4 km/h (2 Bft) 95,74 %
01.07.2016 02:24 15,8 C 93 % 1015,7 hPa 0,0 l/m 1,5 km/h (1 Bft) S-SO 162 0 min 0,000 mm 0,0 UV-I 0 W/m 14,7 C 15,8 C 3,2 km/h (1 Bft) 97,87 %
01.07.2016 02:26 15,7 C 93 % 1015,6 hPa 0,0 l/m 0,3 km/h (0 Bft) S-SO 162 0 min 0,000 mm 0,0 UV-I 0 W/m 14,6 C 15,7 C 1,6 km/h (1 Bft) 100,00 %
01.07.2016 02:28 15,6 C 93 % 1015,6 hPa 0,0 l/m 0,0 km/h (0 Bft) S-SO 162 0 min 0,000 mm 0,0 UV-I 0 W/m 14,5 C 15,6 C 1,6 km/h (1 Bft) 97,87 %
01.07.2016 02:30 15,6 C 93 % 1015,6 hPa 0,0 l/m 0,0 km/h (0 Bft) S-SO 162 0 min 0,000 mm 0,0 UV-I 0 W/m 14,5 C 15,6 C 0,0 km/h (0 Bft) 100,00 %
01.07.2016 02:32 15,5 C 93 % 1015,5 hPa 0,0 l/m 0,0 km/h (0 Bft) S-SO 162 0 min 0,000 mm 0,0 UV-I 0 W/m 14,4 C 15,5 C 0,0 km/h (0 Bft) 100,00 %
01.07.2016 02:34 15,4 C 93 % 1015,5 hPa 0,0 l/m 0,0 km/h (0 Bft) S-SO 162 0 min 0,000 mm 0,0 UV-I 0 W/m 14,3 C 15,4 C 0,0 km/h (0 Bft) 97,87 %
01.07.2016 02:36 15,4 C 93 % 1015,5 hPa 0,0 l/m 0,0 km/h (0 Bft) S-SO 162 0 min 0,000 mm 0,0 UV-I 0 W/m 14,3 C 15,4 C 0,0 km/h (0 Bft) 100,00 %
01.07.2016 02:38 15,4 C 94 % 1015,6 hPa 0,0 l/m 0,1 km/h (0 Bft) S-SO 162 0 min 0,000 mm 0,0 UV-I 0 W/m 14,4 C 15,4 C 1,6 km/h (1 Bft) 100,00 %
01.07.2016 02:40 15,5 C 94 % 1015,6 hPa 0,0 l/m 0,3 km/h (0 Bft) S-SO 162 0 min 0,000 mm 0,0 UV-I 0 W/m 14,5 C 15,5 C 1,6 km/h (1 Bft) 98,00 %
01.07.2016 02:42 15,5 C 94 % 1015,6 hPa 0,0 l/m 0,5 km/h (0 Bft) S-SO 162 0 min 0,000 mm 0,0 UV-I 0 W/m 14,5 C 15,5 C 1,6 km/h (1 Bft) 97,87 %
01.07.2016 02:44 15,4 C 94 % 1015,6 hPa 0,0 l/m 0,7 km/h (0 Bft) S-SO 162 0 min 0,000 mm 0,0 UV-I 0 W/m 14,4 C 15,4 C 1,6 km/h (1 Bft) 95,74 %
01.07.2016 02:46 15,4 C 93 % 1015,6 hPa 0,0 l/m 1,4 km/h (1 Bft) S-SO 162 0 min 0,000 mm 0,0 UV-I 0 W/m 14,3 C 15,4 C 3,2 km/h (1 Bft) 95,74 %
01.07.2016 02:48 15,4 C 93 % 1015,6 hPa 0,0 l/m 0,6 km/h (0 Bft) S-SO 162 0 min 0,000 mm 0,0 UV-I 0 W/m 14,3 C 15,4 C 3,2 km/h (1 Bft) 97,87 %
01.07.2016 02:50 15,5 C 94 % 1015,6 hPa 0,0 l/m 1,6 km/h (1 Bft) S-SO 162 0 min 0,000 mm 0,0 UV-I 0 W/m 14,5 C 15,5 C 3,2 km/h (1 Bft) 92,00 %
01.07.2016 02:52 15,6 C 94 % 1015,6 hPa 0,0 l/m 3,5 km/h (1 Bft) S-SO 165 0 min 0,000 mm 0,0 UV-I 0 W/m 14,6 C 15,6 C 6,4 km/h (2 Bft) 94,29 %
01.07.2016 02:54 15,7 C 93 % 1015,6 hPa 0,0 l/m 2,1 km/h (1 Bft) S-SO 165 0 min 0,000 mm 0,0 UV-I 0 W/m 14,6 C 15,7 C 6,4 km/h (2 Bft) 98,00 %
01.07.2016 02:56 15,7 C 93 % 1015,6 hPa 0,0 l/m 3,8 km/h (1 Bft) S-SO 165 0 min 0,000 mm 0,0 UV-I 0 W/m 14,6 C 15,7 C 6,4 km/h (2 Bft) 97,87 %
01.07.2016 02:58 15,8 C 93 % 1015,7 hPa 0,0 l/m 2,8 km/h (1 Bft) S-SO 165 0 min 0,000 mm 0,0 UV-I 0 W/m 14,7 C 15,8 C 6,4 km/h (2 Bft) 97,87 %
01.07.2016 03:00 15,8 C 93 % 1015,7 hPa 0,0 l/m 2,8 km/h (1 Bft) S-SO 165 0 min 0,000 mm 0,0 UV-I 0 W/m 14,7 C 15,8 C 6,4 km/h (2 Bft) 97,87 %
01.07.2016 03:02 15,8 C 93 % 1015,7 hPa 0,0 l/m 3,4 km/h (1 Bft) S-SO 165 0 min 0,000 mm 0,0 UV-I 0 W/m 14,7 C 15,8 C 6,4 km/h (2 Bft) 97,87 %
01.07.2016 03:04 15,8 C 92 % 1015,7 hPa 0,0 l/m 1,9 km/h (1 Bft) S-SO 165 0 min 0,000 mm 0,0 UV-I 0 W/m 14,5 C 15,8 C 6,4 km/h (2 Bft) 95,74 %
01.07.2016 03:06 15,8 C 92 % 1015,7 hPa 0,0 l/m 2,1 km/h (1 Bft) S-SO 165 0 min 0,000 mm 0,0 UV-I 0 W/m 14,5 C 15,8 C 3,2 km/h (1 Bft) 95,83 %
01.07.2016 03:08 15,7 C 92 % 1015,8 hPa 0,0 l/m 2,3 km/h (1 Bft) S-SO 165 0 min 0,000 mm 0,0 UV-I 0 W/m 14,4 C 15,7 C 6,4 km/h (2 Bft) 95,74 %
01.07.2016 03:10 15,7 C 92 % 1015,8 hPa 0,0 l/m 2,1 km/h (1 Bft) S-SO 165 0 min 0,000 mm 0,0 UV-I 0 W/m 14,4 C 15,7 C 3,2 km/h (1 Bft) 97,87 %
01.07.2016 03:12 15,7 C 93 % 1015,8 hPa 0,0 l/m 2,0 km/h (1 Bft) S-SO 165 0 min 0,000 mm 0,0 UV-I 0 W/m 14,6 C 15,7 C 3,2 km/h (1 Bft) 98,00 %
01.07.2016 03:14 15,7 C 93 % 1015,8 hPa 0,0 l/m 0,8 km/h (0 Bft) S-SO 165 0 min 0,000 mm 0,0 UV-I 0 W/m 14,6 C 15,7 C 1,6 km/h (1 Bft) 97,87 %
01.07.2016 03:16 15,8 C 93 % 1015,8 hPa 0,0 l/m 1,4 km/h (1 Bft) S-SO 165 0 min 0,000 mm 0,0 UV-I 0 W/m 14,7 C 15,8 C 3,2 km/h (1 Bft) 97,87 %
01.07.2016 03:18 15,8 C 92 % 1015,9 hPa 0,0 l/m 0,5 km/h (0 Bft) S-SO 165 0 min 0,000 mm 0,0 UV-I 0 W/m 14,5 C 15,8 C 1,6 km/h (1 Bft) 100,00 %
01.07.2016 03:20 15,7 C 92 % 1015,8 hPa 0,0 l/m 0,4 km/h (0 Bft) S-SO 165 0 min 0,000 mm 0,0 UV-I 0 W/m 14,4 C 15,7 C 1,6 km/h (1 Bft) 97,87 %
01.07.2016 03:22 15,7 C 92 % 1015,8 hPa 0,0 l/m 0,7 km/h (0 Bft) S-SO 165 0 min 0,000 mm 0,0 UV-I 0 W/m 14,4 C 15,7 C 1,6 km/h (1 Bft) 97,87 %
01.07.2016 03:24 15,7 C 93 % 1015,8 hPa 0,0 l/m 0,9 km/h (0 Bft) S-SO 165 0 min 0,000 mm 0,0 UV-I 0 W/m 14,6 C 15,7 C 3,2 km/h (1 Bft) 100,00 %
01.07.2016 03:26 15,7 C 93 % 1015,8 hPa 0,0 l/m 1,8 km/h (1 Bft) S-SO 165 0 min 0,000 mm 0,0 UV-I 0 W/m 14,6 C 15,7 C 3,2 km/h (1 Bft) 100,00 %
01.07.2016 03:28 15,7 C 93 % 1015,9 hPa 0,0 l/m 2,5 km/h (1 Bft) S-SO 165 0 min 0,000 mm 0,0 UV-I 0 W/m 14,6 C 15,7 C 3,2 km/h (1 Bft) 97,87 %
01.07.2016 03:30 15,7 C 93 % 1015,9 hPa 0,0 l/m 2,4 km/h (1 Bft) S-SO 165 0 min 0,000 mm 0,0 UV-I 0 W/m 14,6 C 15,7 C 3,2 km/h (1 Bft) 95,74 %
01.07.2016 03:32 15,7 C 92 % 1015,8 hPa 0,0 l/m 2,3 km/h (1 Bft) S-SO 165 0 min 0,000 mm 0,0 UV-I 0 W/m 14,4 C 15,7 C 3,2 km/h (1 Bft) 100,00 %
01.07.2016 03:34 15,7 C 93 % 1015,8 hPa 0,0 l/m 1,2 km/h (1 Bft) S-SO 165 0 min 0,000 mm 0,0 UV-I 0 W/m 14,6 C 15,7 C 3,2 km/h (1 Bft) 100,00 %
01.07.2016 03:36 15,7 C 92 % 1015,9 hPa 0,0 l/m 1,2 km/h (1 Bft) S-SO 165 0 min 0,000 mm 0,0 UV-I 0 W/m 14,4 C 15,7 C 3,2 km/h (1 Bft) 100,00 %
01.07.2016 03:38 15,7 C 92 % 1015,9 hPa 0,0 l/m 2,6 km/h (1 Bft) S-SO 165 0 min 0,000 mm 0,0 UV-I 0 W/m 14,4 C 15,7 C 6,4 km/h (2 Bft) 100,00 %
01.07.2016 03:40 15,7 C 92 % 1015,9 hPa 0,0 l/m 2,5 km/h (1 Bft) S-SO 165 0 min 0,000 mm 0,0 UV-I 0 W/m 14,4 C 15,7 C 6,4 km/h (2 Bft) 100,00 %
01.07.2016 03:42 15,7 C 92 % 1015,9 hPa 0,0 l/m 4,3 km/h (1 Bft) S-SO 166 0 min 0,000 mm 0,0 UV-I 0 W/m 14,4 C 15,7 C 6,4 km/h (2 Bft) 100,00 %
01.07.2016 03:44 15,7 C 92 % 1015,9 hPa 0,0 l/m 5,2 km/h (1 Bft) S-SO 166 0 min 0,000 mm 0,0 UV-I 0 W/m 14,4 C 15,7 C 6,4 km/h (2 Bft) 97,92 %
01.07.2016 03:46 15,7 C 93 % 1015,9 hPa 0,0 l/m 3,5 km/h (1 Bft) S-SO 166 0 min 0,000 mm 0,0 UV-I 0 W/m 14,6 C 15,7 C 4,8 km/h (1 Bft) 100,00 %
01.07.2016 03:48 15,7 C 93 % 1015,9 hPa 0,0 l/m 1,5 km/h (1 Bft) S-SO 166 0 min 0,000 mm 0,0 UV-I 0 W/m 14,6 C 15,7 C 4,8 km/h (1 Bft) 100,00 %
01.07.2016 03:50 15,7 C 93 % 1015,9 hPa 0,0 l/m 3,6 km/h (1 Bft) S 169 0 min 0,000 mm 0,0 UV-I 0 W/m 14,6 C 15,7 C 6,4 km/h (2 Bft) 100,00 %
01.07.2016 03:52 15,8 C 93 % 1015,9 hPa 0,0 l/m 4,7 km/h (1 Bft) S 169 0 min 0,000 mm 0,0 UV-I 0 W/m 14,7 C 15,8 C 6,4 km/h (2 Bft) 100,00 %
01.07.2016 03:54 15,8 C 93 % 1015,9 hPa 0,0 l/m 4,6 km/h (1 Bft) S 171 0 min 0,000 mm 0,0 UV-I 0 W/m 14,7 C 15,8 C 6,4 km/h (2 Bft) 100,00 %
01.07.2016 03:56 15,9 C 93 % 1016,0 hPa 0,0 l/m 4,0 km/h (1 Bft) S 173 0 min 0,000 mm 0,0 UV-I 0 W/m 14,8 C 15,9 C 8,0 km/h (2 Bft) 95,74 %
01.07.2016 03:58 15,9 C 92 % 1016,0 hPa 0,0 l/m 3,8 km/h (1 Bft) S 180 0 min 0,000 mm 0,0 UV-I 0 W/m 14,6 C 15,9 C 4,8 km/h (1 Bft) 100,00 %
01.07.2016 04:00 15,9 C 92 % 1016,0 hPa 0,0 l/m 3,4 km/h (1 Bft) S 185 0 min 0,000 mm 0,0 UV-I 0 W/m 14,6 C 15,9 C 6,4 km/h (2 Bft) 100,00 %
01.07.2016 04:02 15,9 C 92 % 1016,0 hPa 0,0 l/m 3,8 km/h (1 Bft) S 185 0 min 0,000 mm 0,0 UV-I 0 W/m 14,6 C 15,9 C 6,4 km/h (2 Bft) 97,30 %
01.07.2016 04:04 15,9 C 92 % 1015,9 hPa 0,0 l/m 4,4 km/h (1 Bft) S 178 0 min 0,000 mm 0,0 UV-I 0 W/m 14,6 C 15,9 C 6,4 km/h (2 Bft) 97,87 %
01.07.2016 04:06 15,9 C 92 % 1015,9 hPa 0,0 l/m 2,5 km/h (1 Bft) S 177 0 min 0,000 mm 0,0 UV-I 0 W/m 14,6 C 15,9 C 6,4 km/h (2 Bft) 98,00 %
01.07.2016 04:08 15,9 C 92 % 1015,9 hPa 0,0 l/m 2,2 km/h (1 Bft) S 179 0 min 0,000 mm 0,0 UV-I 0 W/m 14,6 C 15,9 C 4,8 km/h (1 Bft) 97,87 %
01.07.2016 04:10 16,0 C 92 % 1015,9 hPa 0,0 l/m 4,7 km/h (1 Bft) S 183 0 min 0,000 mm 0,0 UV-I 0 W/m 14,7 C 16,0 C 6,4 km/h (2 Bft) 100,00 %
01.07.2016 04:12 16,0 C 92 % 1016,0 hPa 0,0 l/m 3,5 km/h (1 Bft) S 183 0 min 0,000 mm 0,0 UV-I 0 W/m 14,7 C 16,0 C 4,8 km/h (1 Bft) 100,00 %
01.07.2016 04:14 16,0 C 92 % 1015,9 hPa 0,0 l/m 4,3 km/h (1 Bft) S 175 0 min 0,000 mm 0,0 UV-I 0 W/m 14,7 C 16,0 C 8,0 km/h (2 Bft) 100,00 %
01.07.2016 04:16 16,1 C 92 % 1015,9 hPa 0,0 l/m 4,0 km/h (1 Bft) S 188 0 min 0,000 mm 0,0 UV-I 0 W/m 14,8 C 16,1 C 6,4 km/h (2 Bft) 100,00 %
01.07.2016 04:18 16,1 C 92 % 1015,9 hPa 0,0 l/m 4,8 km/h (1 Bft) S 182 0 min 0,000 mm 0,0 UV-I 0 W/m 14,8 C 16,1 C 8,0 km/h (2 Bft) 100,00 %
01.07.2016 04:20 16,1 C 92 % 1015,9 hPa 0,0 l/m 5,2 km/h (1 Bft) S 180 0 min 0,000 mm 0,0 UV-I 0 W/m 14,8 C 16,1 C 11,3 km/h (2 Bft) 100,00 %
01.07.2016 04:22 16,1 C 92 % 1015,9 hPa 0,0 l/m 5,5 km/h (1 Bft) S 187 0 min 0,000 mm 0,0 UV-I 0 W/m 14,8 C 16,1 C 8,0 km/h (2 Bft) 100,00 %
01.07.2016 04:24 16,2 C 92 % 1016,0 hPa 0,0 l/m 4,9 km/h (1 Bft) SW 216 0 min 0,000 mm 0,0 UV-I 0 W/m 14,9 C 16,2 C 8,0 km/h (2 Bft) 100,00 %
01.07.2016 04:26 16,2 C 92 % 1016,0 hPa 0,0 l/m 4,7 km/h (1 Bft) S-SW 209 0 min 0,000 mm 0,0 UV-I 0 W/m 14,9 C 16,2 C 8,0 km/h (2 Bft) 100,00 %
01.07.2016 04:28 16,2 C 92 % 1016,0 hPa 0,0 l/m 4,9 km/h (1 Bft) S-SW 205 0 min 0,000 mm 0,0 UV-I 0 W/m 14,9 C 16,2 C 9,7 km/h (2 Bft) 100,00 %
01.07.2016 04:30 16,2 C 92 % 1016,0 hPa 0,0 l/m 7,0 km/h (2 Bft) S 191 0 min 0,000 mm 0,0 UV-I 0 W/m 14,9 C 15,9 C 9,7 km/h (2 Bft) 100,00 %
01.07.2016 04:32 16,2 C 92 % 1016,0 hPa 0,0 l/m 4,3 km/h (1 Bft) S 173 0 min 0,000 mm 0,0 UV-I 0 W/m 14,9 C 16,2 C 9,7 km/h (2 Bft) 100,00 %
01.07.2016 04:34 16,2 C 92 % 1016,0 hPa 0,0 l/m 5,3 km/h (1 Bft) S 175 0 min 0,000 mm 0,0 UV-I 0 W/m 14,9 C 16,2 C 8,0 km/h (2 Bft) 98,00 %
01.07.2016 04:36 16,2 C 92 % 1016,0 hPa 0,0 l/m 5,8 km/h (2 Bft) S-SW 196 0 min 0,000 mm 0,0 UV-I 0 W/m 14,9 C 16,2 C 9,7 km/h (2 Bft) 97,87 %
01.07.2016 04:38 16,2 C 91 % 1016,1 hPa 0,0 l/m 5,0 km/h (1 Bft) S-SW 197 0 min 0,000 mm 0,0 UV-I 0 W/m 14,7 C 16,2 C 8,0 km/h (2 Bft) 100,00 %
01.07.2016 04:40 16,2 C 91 % 1016,0 hPa 0,0 l/m 4,7 km/h (1 Bft) S 170 0 min 0,000 mm 0,0 UV-I 0 W/m 14,7 C 16,2 C 8,0 km/h (2 Bft) 97,87 %
01.07.2016 04:42 16,2 C 91 % 1016,1 hPa 0,0 l/m 3,8 km/h (1 Bft) S 169 0 min 0,000 mm 0,0 UV-I 0 W/m 14,7 C 16,2 C 8,0 km/h (2 Bft) 100,00 %
01.07.2016 04:44 16,2 C 91 % 1016,1 hPa 0,0 l/m 4,7 km/h (1 Bft) S 170 0 min 0,000 mm 0,0 UV-I 0 W/m 14,7 C 16,2 C 8,0 km/h (2 Bft) 95,74 %
01.07.2016 04:46 16,3 C 91 % 1016,1 hPa 0,0 l/m 1,6 km/h (1 Bft) S 170 0 min 0,000 mm 0,0 UV-I 0 W/m 14,8 C 16,3 C 3,2 km/h (1 Bft) 93,62 %
01.07.2016 04:48 16,3 C 91 % 1016,1 hPa 0,0 l/m 2,4 km/h (1 Bft) S 170 0 min 0,000 mm 0,0 UV-I 0 W/m 14,8 C 16,3 C 6,4 km/h (2 Bft) 95,74 %
01.07.2016 04:50 16,3 C 91 % 1016,1 hPa 0,0 l/m 2,6 km/h (1 Bft) S 173 0 min 0,000 mm 0,0 UV-I 0 W/m 14,8 C 16,3 C 8,0 km/h (2 Bft) 97,87 %
01.07.2016 04:52 16,3 C 91 % 1016,1 hPa 0,0 l/m 4,4 km/h (1 Bft) S-SO 165 0 min 0,000 mm 0,0 UV-I 0 W/m 14,8 C 16,3 C 8,0 km/h (2 Bft) 93,62 %
01.07.2016 04:54 16,3 C 91 % 1016,1 hPa 0,0 l/m 5,0 km/h (1 Bft) S-SW 192 0 min 0,000 mm 0,0 UV-I 0 W/m 14,8 C 16,3 C 8,0 km/h (2 Bft) 95,74 %
01.07.2016 04:56 16,3 C 91 % 1016,1 hPa 0,0 l/m 4,2 km/h (1 Bft) S 178 0 min 0,000 mm 0,0 UV-I 0 W/m 14,8 C 16,3 C 6,4 km/h (2 Bft) 93,62 %
01.07.2016 04:58 16,3 C 91 % 1016,1 hPa 0,0 l/m 5,2 km/h (1 Bft) S 182 0 min 0,000 mm 0,0 UV-I 0 W/m 14,8 C 16,3 C 8,0 km/h (2 Bft) 97,87 %
01.07.2016 05:00 16,2 C 91 % 1016,0 hPa 0,0 l/m 4,4 km/h (1 Bft) S 178 0 min 0,000 mm 0,0 UV-I 0 W/m 14,7 C 16,2 C 6,4 km/h (2 Bft) 95,74 %
01.07.2016 05:02 16,2 C 91 % 1016,1 hPa 0,0 l/m 4,4 km/h (1 Bft) S-SO 163 0 min 0,000 mm 0,0 UV-I 0 W/m 14,7 C 16,2 C 8,0 km/h (2 Bft) 91,49 %
01.07.2016 05:04 16,2 C 91 % 1016,1 hPa 0,0 l/m 4,3 km/h (1 Bft) S 175 0 min 0,000 mm 0,0 UV-I 0 W/m 14,7 C 16,2 C 8,0 km/h (2 Bft) 93,62 %
01.07.2016 05:06 16,2 C 91 % 1016,1 hPa 0,0 l/m 3,4 km/h (1 Bft) S-SO 167 0 min 0,000 mm 0,0 UV-I 0 W/m 14,7 C 16,2 C 6,4 km/h (2 Bft) 92,31 %
01.07.2016 05:08 16,2 C 91 % 1016,0 hPa 0,0 l/m 3,0 km/h (1 Bft) S-SO 163 0 min 0,000 mm 0,0 UV-I 0 W/m 14,7 C 16,2 C 6,4 km/h (2 Bft) 98,00 %
01.07.2016 05:10 16,2 C 91 % 1016,0 hPa 0,0 l/m 2,4 km/h (1 Bft) S-SO 161 0 min 0,000 mm 0,0 UV-I 0 W/m 14,7 C 16,2 C 6,4 km/h (2 Bft) 95,74 %
01.07.2016 05:12 16,2 C 91 % 1016,0 hPa 0,0 l/m 2,2 km/h (1 Bft) S-SO 163 0 min 0,000 mm 0,0 UV-I 0 W/m 14,7 C 16,2 C 6,4 km/h (2 Bft) 95,74 %
01.07.2016 05:14 16,2 C 91 % 1016,1 hPa 0,0 l/m 1,9 km/h (1 Bft) S-SO 163 0 min 0,000 mm 0,0 UV-I 4 W/m 14,7 C 16,2 C 6,4 km/h (2 Bft) 97,87 %
01.07.2016 05:16 16,2 C 91 % 1016,1 hPa 0,0 l/m 3,3 km/h (1 Bft) S-SW 205 0 min 0,000 mm 0,0 UV-I 5 W/m 14,7 C 16,2 C 8,0 km/h (2 Bft) 100,00 %
01.07.2016 05:18 16,2 C 91 % 1016,2 hPa 0,0 l/m 4,5 km/h (1 Bft) S-SW 195 0 min 0,000 mm 0,0 UV-I 5 W/m 14,7 C 16,2 C 8,0 km/h (2 Bft) 98,00 %
01.07.2016 05:20 16,2 C 91 % 1016,2 hPa 0,0 l/m 3,7 km/h (1 Bft) S-SW 196 0 min 0,000 mm 0,0 UV-I 5 W/m 14,7 C 16,2 C 4,8 km/h (1 Bft) 100,00 %
01.07.2016 05:22 16,2 C 91 % 1016,3 hPa 0,0 l/m 5,0 km/h (1 Bft) S-SW 207 0 min 0,000 mm 0,0 UV-I 5 W/m 14,7 C 16,2 C 8,0 km/h (2 Bft) 97,87 %
01.07.2016 05:24 16,1 C 91 % 1016,3 hPa 0,0 l/m 5,4 km/h (1 Bft) S-SW 199 0 min 0,000 mm 0,0 UV-I 5 W/m 14,6 C 16,1 C 8,0 km/h (2 Bft) 100,00 %
01.07.2016 05:26 16,1 C 91 % 1016,3 hPa 0,0 l/m 4,5 km/h (1 Bft) S-SW 211 0 min 0,000 mm 0,0 UV-I 6 W/m 14,6 C 16,1 C 6,4 km/h (2 Bft) 95,74 %
01.07.2016 05:28 16,1 C 91 % 1016,3 hPa 0,0 l/m 2,2 km/h (1 Bft) S-SW 208 0 min 0,000 mm 0,0 UV-I 7 W/m 14,6 C 16,1 C 4,8 km/h (1 Bft) 100,00 %
01.07.2016 05:30 16,1 C 92 % 1016,3 hPa 0,0 l/m 4,3 km/h (1 Bft) S 188 0 min 0,000 mm 0,0 UV-I 9 W/m 14,8 C 16,1 C 6,4 km/h (2 Bft) 100,00 %
01.07.2016 05:32 16,1 C 92 % 1016,3 hPa 0,0 l/m 3,2 km/h (1 Bft) S-SO 168 0 min 0,000 mm 0,0 UV-I 9 W/m 14,8 C 16,1 C 4,8 km/h (1 Bft) 100,00 %
01.07.2016 05:34 16,1 C 92 % 1016,3 hPa 0,0 l/m 2,8 km/h (1 Bft) S 171 0 min 0,000 mm 0,0 UV-I 9 W/m 14,8 C 16,1 C 6,4 km/h (2 Bft) 100,00 %
01.07.2016 05:36 16,1 C 91 % 1016,3 hPa 0,0 l/m 4,8 km/h (1 Bft) S-SO 167 0 min 0,000 mm 0,0 UV-I 9 W/m 14,6 C 16,1 C 8,0 km/h (2 Bft) 100,00 %
01.07.2016 05:38 16,2 C 91 % 1016,4 hPa 0,0 l/m 4,1 km/h (1 Bft) S-SO 167 0 min 0,000 mm 0,0 UV-I 11 W/m 14,7 C 16,2 C 6,4 km/h (2 Bft) 97,87 %
01.07.2016 05:40 16,2 C 91 % 1016,4 hPa 0,0 l/m 4,6 km/h (1 Bft) S 188 0 min 0,000 mm 0,0 UV-I 11 W/m 14,7 C 16,2 C 8,0 km/h (2 Bft) 100,00 %
01.07.2016 05:42 16,2 C 91 % 1016,4 hPa 0,0 l/m 4,2 km/h (1 Bft) S 188 0 min 0,000 mm 0,0 UV-I 12 W/m 14,7 C 16,2 C 6,4 km/h (2 Bft) 100,00 %
01.07.2016 05:44 16,2 C 91 % 1016,4 hPa 0,0 l/m 3,1 km/h (1 Bft) S 180 0 min 0,000 mm 0,0 UV-I 12 W/m 14,7 C 16,2 C 6,4 km/h (2 Bft) 100,00 %
01.07.2016 05:46 16,3 C 91 % 1016,5 hPa 0,0 l/m 3,9 km/h (1 Bft) S 178 0 min 0,000 mm 0,0 UV-I 14 W/m 14,8 C 16,3 C 6,4 km/h (2 Bft) 100,00 %
01.07.2016 05:48 16,3 C 91 % 1016,4 hPa 0,0 l/m 3,4 km/h (1 Bft) S-SO 160 0 min 0,000 mm 0,0 UV-I 14 W/m 14,8 C 16,3 C 8,0 km/h (2 Bft) 100,00 %
01.07.2016 05:50 16,3 C 91 % 1016,4 hPa 0,0 l/m 3,2 km/h (1 Bft) S 182 0 min 0,000 mm 0,0 UV-I 16 W/m 14,8 C 16,3 C 6,4 km/h (2 Bft) 97,87 %
01.07.2016 05:52 16,3 C 91 % 1016,5 hPa 0,0 l/m 2,7 km/h (1 Bft) S 186 0 min 0,000 mm 0,0 UV-I 18 W/m 14,8 C 16,3 C 4,8 km/h (1 Bft) 100,00 %
01.07.2016 05:54 16,3 C 91 % 1016,5 hPa 0,0 l/m 3,7 km/h (1 Bft) S 186 0 min 0,000 mm 0,0 UV-I 19 W/m 14,8 C 16,3 C 4,8 km/h (1 Bft) 100,00 %
01.07.2016 05:56 16,4 C 91 % 1016,5 hPa 0,0 l/m 2,8 km/h (1 Bft) S 186 0 min 0,000 mm 0,0 UV-I 21 W/m 14,9 C 16,4 C 4,8 km/h (1 Bft) 100,00 %
01.07.2016 05:58 16,4 C 91 % 1016,6 hPa 0,0 l/m 3,1 km/h (1 Bft) S 186 0 min 0,000 mm 0,0 UV-I 24 W/m 14,9 C 16,4 C 4,8 km/h (1 Bft) 100,00 %
01.07.2016 06:00 16,4 C 91 % 1016,6 hPa 0,0 l/m 3,0 km/h (1 Bft) S 185 0 min 0,000 mm 0,0 UV-I 27 W/m 14,9 C 16,4 C 4,8 km/h (1 Bft) 100,00 %
01.07.2016 06:02 16,4 C 91 % 1016,6 hPa 0,0 l/m 1,8 km/h (1 Bft) S 185 0 min 0,000 mm 0,0 UV-I 30 W/m 14,9 C 16,4 C 3,2 km/h (1 Bft) 100,00 %
01.07.2016 06:04 16,4 C 91 % 1016,6 hPa 0,0 l/m 3,9 km/h (1 Bft) S 184 0 min 0,000 mm 0,0 UV-I 34 W/m 14,9 C 16,4 C 6,4 km/h (2 Bft) 100,00 %
01.07.2016 06:06 16,5 C 91 % 1016,6 hPa 0,0 l/m 3,0 km/h (1 Bft) S 184 0 min 0,000 mm 0,0 UV-I 37 W/m 15,0 C 16,5 C 4,8 km/h (1 Bft) 100,00 %
01.07.2016 06:08 16,5 C 91 % 1016,6 hPa 0,0 l/m 2,0 km/h (1 Bft) S 184 0 min 0,000 mm 0,0 UV-I 39 W/m 15,0 C 16,5 C 3,2 km/h (1 Bft) 100,00 %
01.07.2016 06:10 16,5 C 91 % 1016,5 hPa 0,0 l/m 2,6 km/h (1 Bft) S 184 0 min 0,000 mm 0,0 UV-I 43 W/m 15,0 C 16,5 C 4,8 km/h (1 Bft) 100,00 %
01.07.2016 06:12 16,6 C 91 % 1016,6 hPa 0,0 l/m 3,9 km/h (1 Bft) S 184 0 min 0,000 mm 0,0 UV-I 47 W/m 15,1 C 16,6 C 6,4 km/h (2 Bft) 98,00 %
01.07.2016 06:14 16,6 C 91 % 1016,6 hPa 0,0 l/m 4,3 km/h (1 Bft) S-SW 209 0 min 0,000 mm 0,0 UV-I 51 W/m 15,1 C 16,6 C 4,8 km/h (1 Bft) 100,00 %
01.07.2016 06:16 16,6 C 91 % 1016,6 hPa 0,0 l/m 3,1 km/h (1 Bft) S-SW 209 0 min 0,000 mm 0,0 UV-I 54 W/m 15,1 C 16,6 C 4,8 km/h (1 Bft) 97,87 %
01.07.2016 06:18 16,6 C 91 % 1016,6 hPa 0,0 l/m 1,4 km/h (1 Bft) S-SW 209 0 min 0,000 mm 0,0 UV-I 58 W/m 15,1 C 16,6 C 3,2 km/h (1 Bft) 100,00 %
01.07.2016 06:20 16,6 C 91 % 1016,6 hPa 0,0 l/m 0,7 km/h (0 Bft) S-SW 209 0 min 0,000 mm 0,0 UV-I 62 W/m 15,1 C 16,6 C 3,2 km/h (1 Bft) 100,00 %
01.07.2016 06:22 16,7 C 91 % 1016,6 hPa 0,0 l/m 2,1 km/h (1 Bft) S-SW 209 0 min 0,000 mm 0,0 UV-I 66 W/m 15,2 C 16,7 C 4,8 km/h (1 Bft) 100,00 %
01.07.2016 06:24 16,7 C 91 % 1016,6 hPa 0,0 l/m 0,5 km/h (0 Bft) S-SW 209 0 min 0,000 mm 0,0 UV-I 70 W/m 15,2 C 16,7 C 1,6 km/h (1 Bft) 100,00 %
01.07.2016 06:26 16,8 C 91 % 1016,6 hPa 0,0 l/m 2,1 km/h (1 Bft) S 184 0 min 0,000 mm 0,0 UV-I 75 W/m 15,3 C 16,8 C 4,8 km/h (1 Bft) 100,00 %
01.07.2016 06:28 16,8 C 90 % 1016,5 hPa 0,0 l/m 2,0 km/h (1 Bft) S 174 0 min 0,000 mm 0,0 UV-I 77 W/m 15,1 C 16,8 C 4,8 km/h (1 Bft) 92,11 %
01.07.2016 06:30 16,9 C 90 % 1016,6 hPa 0,0 l/m 2,5 km/h (1 Bft) S 177 0 min 0,000 mm 0,0 UV-I 77 W/m 15,2 C 16,9 C 4,8 km/h (1 Bft) 100,00 %
01.07.2016 06:32 17,1 C 90 % 1016,6 hPa 0,0 l/m 1,9 km/h (1 Bft) S 177 0 min 0,000 mm 0,0 UV-I 77 W/m 15,4 C 17,1 C 4,8 km/h (1 Bft) 98,00 %
01.07.2016 06:34 17,1 C 90 % 1016,6 hPa 0,0 l/m 3,7 km/h (1 Bft) S 180 0 min 0,000 mm 0,0 UV-I 78 W/m 15,4 C 17,1 C 6,4 km/h (2 Bft) 93,62 %
01.07.2016 06:36 17,2 C 89 % 1016,6 hPa 0,0 l/m 3,5 km/h (1 Bft) S-SW 207 0 min 0,000 mm 0,0 UV-I 96 W/m 15,4 C 17,2 C 6,4 km/h (2 Bft) 97,87 %
01.07.2016 06:38 17,2 C 89 % 1016,6 hPa 0,0 l/m 3,1 km/h (1 Bft) S-SO 168 0 min 0,000 mm 0,0 UV-I 100 W/m 15,4 C 17,2 C 6,4 km/h (2 Bft) 100,00 %
01.07.2016 06:40 17,3 C 89 % 1016,6 hPa 0,0 l/m 3,1 km/h (1 Bft) S 169 0 min 0,000 mm 0,0 UV-I 108 W/m 15,5 C 17,3 C 6,4 km/h (2 Bft) 100,00 %
01.07.2016 06:42 17,3 C 89 % 1016,6 hPa 0,0 l/m 4,1 km/h (1 Bft) S 169 0 min 0,000 mm 0,0 UV-I 96 W/m 15,5 C 17,3 C 6,4 km/h (2 Bft) 97,87 %
01.07.2016 06:44 17,4 C 89 % 1016,6 hPa 0,0 l/m 1,9 km/h (1 Bft) S 169 0 min 0,000 mm 0,0 UV-I 110 W/m 15,6 C 17,4 C 6,4 km/h (2 Bft) 97,87 %
01.07.2016 06:46 17,4 C 88 % 1016,7 hPa 0,0 l/m 3,5 km/h (1 Bft) S-SO 166 2 min 0,000 mm 0,0 UV-I 127 W/m 15,4 C 17,4 C 6,4 km/h (2 Bft) 96,00 %
01.07.2016 06:48 17,5 C 88 % 1016,7 hPa 0,0 l/m 4,7 km/h (1 Bft) S 187 0 min 0,000 mm 0,0 UV-I 113 W/m 15,5 C 17,5 C 8,0 km/h (2 Bft) 95,74 %
01.07.2016 06:50 17,6 C 88 % 1016,7 hPa 0,0 l/m 5,7 km/h (1 Bft) S 185 0 min 0,000 mm 0,0 UV-I 104 W/m 15,6 C 17,6 C 8,0 km/h (2 Bft) 97,87 %
01.07.2016 06:52 17,6 C 88 % 1016,7 hPa 0,0 l/m 2,4 km/h (1 Bft) S-SO 168 0 min 0,000 mm 0,0 UV-I 102 W/m 15,6 C 17,6 C 6,4 km/h (2 Bft) 97,87 %
01.07.2016 06:54 17,7 C 88 % 1016,8 hPa 0,0 l/m 1,0 km/h (0 Bft) S-SO 168 2 min 0,000 mm 0,0 UV-I 166 W/m 15,7 C 17,7 C 3,2 km/h (1 Bft) 95,74 %
01.07.2016 06:56 17,8 C 88 % 1016,7 hPa 0,0 l/m 2,2 km/h (1 Bft) S 172 2 min 0,000 mm 0,0 UV-I 145 W/m 15,8 C 17,8 C 4,8 km/h (1 Bft) 94,29 %
01.07.2016 06:58 17,8 C 88 % 1016,8 hPa 0,0 l/m 1,9 km/h (1 Bft) S 178 0 min 0,000 mm 0,0 UV-I 118 W/m 15,8 C 17,8 C 3,2 km/h (1 Bft) 95,83 %
01.07.2016 07:00 17,9 C 87 % 1016,8 hPa 0,0 l/m 0,7 km/h (0 Bft) S 178 0 min 0,051 mm 0,0 UV-I 114 W/m 15,7 C 17,9 C 3,2 km/h (1 Bft) 97,87 %
01.07.2016 07:02 17,9 C 87 % 1016,8 hPa 0,0 l/m 1,8 km/h (1 Bft) S 178 0 min 0,000 mm 0,0 UV-I 121 W/m 15,7 C 17,9 C 4,8 km/h (1 Bft) 95,74 %
01.07.2016 07:04 17,9 C 87 % 1016,8 hPa 0,0 l/m 1,4 km/h (1 Bft) S 178 0 min 0,000 mm 0,0 UV-I 127 W/m 15,7 C 17,9 C 3,2 km/h (1 Bft) 97,87 %
01.07.2016 07:06 17,9 C 87 % 1016,8 hPa 0,0 l/m 2,3 km/h (1 Bft) S 178 0 min 0,000 mm 0,0 UV-I 136 W/m 15,7 C 17,9 C 3,2 km/h (1 Bft) 93,62 %
01.07.2016 07:08 17,9 C 87 % 1016,9 hPa 0,0 l/m 2,4 km/h (1 Bft) S 178 0 min 0,000 mm 0,0 UV-I 144 W/m 15,7 C 17,9 C 3,2 km/h (1 Bft) 97,87 %
01.07.2016 07:10 17,9 C 87 % 1016,8 hPa 0,0 l/m 1,8 km/h (1 Bft) S 178 0 min 0,000 mm 0,0 UV-I 156 W/m 15,7 C 17,9 C 3,2 km/h (1 Bft) 97,87 %
01.07.2016 07:12 17,9 C 87 % 1016,9 hPa 0,0 l/m 1,7 km/h (1 Bft) S 179 2 min 0,000 mm 0,0 UV-I 183 W/m 15,7 C 17,9 C 3,2 km/h (1 Bft) 97,87 %
01.07.2016 07:14 18,0 C 87 % 1016,9 hPa 0,0 l/m 2,4 km/h (1 Bft) S 186 2 min 0,000 mm 0,4 UV-I 196 W/m 15,8 C 18,0 C 3,2 km/h (1 Bft) 97,87 %
01.07.2016 07:16 18,1 C 87 % 1016,9 hPa 0,0 l/m 1,9 km/h (1 Bft) S 186 2 min 0,000 mm 0,5 UV-I 223 W/m 15,9 C 18,1 C 3,2 km/h (1 Bft) 97,87 %
01.07.2016 07:18 18,2 C 86 % 1016,9 hPa 0,0 l/m 1,6 km/h (1 Bft) S 186 2 min 0,000 mm 0,5 UV-I 286 W/m 15,8 C 18,2 C 3,2 km/h (1 Bft) 98,00 %
01.07.2016 07:20 18,3 C 86 % 1016,9 hPa 0,0 l/m 3,0 km/h (1 Bft) S 186 2 min 0,000 mm 0,5 UV-I 321 W/m 15,9 C 18,3 C 4,8 km/h (1 Bft) 100,00 %
01.07.2016 07:22 18,4 C 86 % 1017,0 hPa 0,0 l/m 1,9 km/h (1 Bft) S-SW 202 2 min 0,000 mm 0,5 UV-I 237 W/m 16,0 C 18,4 C 4,8 km/h (1 Bft) 97,87 %
01.07.2016 07:24 18,6 C 86 % 1016,9 hPa 0,0 l/m 3,0 km/h (1 Bft) S-SW 202 2 min 0,000 mm 0,5 UV-I 191 W/m 16,2 C 18,6 C 4,8 km/h (1 Bft) 100,00 %
01.07.2016 07:26 18,6 C 85 % 1017,0 hPa 0,0 l/m 2,9 km/h (1 Bft) S-SW 202 0 min 0,000 mm 0,5 UV-I 175 W/m 16,0 C 18,6 C 4,8 km/h (1 Bft) 95,74 %
01.07.2016 07:28 18,5 C 85 % 1017,0 hPa 0,0 l/m 2,0 km/h (1 Bft) S-SW 203 0 min 0,000 mm 0,5 UV-I 182 W/m 15,9 C 18,5 C 4,8 km/h (1 Bft) 93,62 %
01.07.2016 07:30 18,6 C 86 % 1016,9 hPa 0,0 l/m 2,6 km/h (1 Bft) S-SW 203 2 min 0,000 mm 0,6 UV-I 192 W/m 16,2 C 18,6 C 4,8 km/h (1 Bft) 100,00 %
01.07.2016 07:32 18,6 C 86 % 1017,0 hPa 0,0 l/m 2,4 km/h (1 Bft) S-SW 204 2 min 0,000 mm 0,6 UV-I 201 W/m 16,2 C 18,6 C 4,8 km/h (1 Bft) 97,44 %
01.07.2016 07:34 18,7 C 86 % 1017,0 hPa 0,0 l/m 3,1 km/h (1 Bft) S-SW 196 2 min 0,000 mm 0,6 UV-I 210 W/m 16,3 C 18,7 C 4,8 km/h (1 Bft) 97,87 %
01.07.2016 07:36 18,7 C 86 % 1017,0 hPa 0,0 l/m 4,6 km/h (1 Bft) S 187 0 min 0,000 mm 0,6 UV-I 194 W/m 16,3 C 18,7 C 6,4 km/h (2 Bft) 95,74 %
01.07.2016 07:38 18,8 C 86 % 1017,0 hPa 0,0 l/m 3,6 km/h (1 Bft) S 191 0 min 0,000 mm 0,6 UV-I 191 W/m 16,4 C 18,8 C 6,4 km/h (2 Bft) 98,00 %
01.07.2016 07:40 18,8 C 85 % 1016,9 hPa 0,0 l/m 4,6 km/h (1 Bft) S-SW 196 0 min 0,000 mm 0,6 UV-I 160 W/m 16,2 C 18,8 C 6,4 km/h (2 Bft) 100,00 %
01.07.2016 07:42 18,7 C 86 % 1016,9 hPa 0,0 l/m 1,9 km/h (1 Bft) S-SW 206 0 min 0,000 mm 0,6 UV-I 155 W/m 16,3 C 18,7 C 3,2 km/h (1 Bft) 100,00 %
01.07.2016 07:44 18,7 C 85 % 1016,9 hPa 0,0 l/m 3,0 km/h (1 Bft) S-SW 209 0 min 0,000 mm 0,7 UV-I 156 W/m 16,1 C 18,7 C 4,8 km/h (1 Bft) 100,00 %
01.07.2016 07:46 18,7 C 86 % 1016,9 hPa 0,0 l/m 2,3 km/h (1 Bft) S-SW 209 0 min 0,000 mm 0,7 UV-I 168 W/m 16,3 C 18,7 C 3,2 km/h (1 Bft) 100,00 %
01.07.2016 07:48 18,7 C 86 % 1016,9 hPa 0,0 l/m 2,6 km/h (1 Bft) S-SW 209 0 min 0,000 mm 0,7 UV-I 163 W/m 16,3 C 18,7 C 4,8 km/h (1 Bft) 97,87 %
01.07.2016 07:50 18,7 C 86 % 1016,9 hPa 0,0 l/m 2,8 km/h (1 Bft) S-SW 210 0 min 0,000 mm 0,7 UV-I 163 W/m 16,3 C 18,7 C 4,8 km/h (1 Bft) 97,96 %
01.07.2016 07:52 18,8 C 86 % 1016,9 hPa 0,0 l/m 2,5 km/h (1 Bft) S-SW 210 0 min 0,000 mm 0,8 UV-I 176 W/m 16,4 C 18,8 C 4,8 km/h (1 Bft) 100,00 %
01.07.2016 07:54 18,8 C 86 % 1016,9 hPa 0,0 l/m 3,1 km/h (1 Bft) S-SW 203 0 min 0,000 mm 0,8 UV-I 224 W/m 16,4 C 18,8 C 4,8 km/h (1 Bft) 100,00 %
01.07.2016 07:56 18,9 C 87 % 1016,9 hPa 0,0 l/m 3,6 km/h (1 Bft) S-SW 203 2 min 0,000 mm 0,9 UV-I 308 W/m 16,7 C 18,9 C 6,4 km/h (2 Bft) 97,87 %
01.07.2016 07:58 19,0 C 85 % 1016,8 hPa 0,0 l/m 0,9 km/h (0 Bft) S-SW 201 2 min 0,000 mm 0,9 UV-I 264 W/m 16,4 C 19,0 C 1,6 km/h (1 Bft) 100,00 %
01.07.2016 08:00 19,0 C 84 % 1016,9 hPa 0,0 l/m 2,0 km/h (1 Bft) S-SW 198 0 min 0,101 mm 0,9 UV-I 191 W/m 16,2 C 19,0 C 4,8 km/h (1 Bft) 100,00 %
01.07.2016 08:02 18,9 C 85 % 1016,9 hPa 0,0 l/m 1,5 km/h (1 Bft) S-SW 198 0 min 0,000 mm 0,9 UV-I 209 W/m 16,3 C 18,9 C 3,2 km/h (1 Bft) 100,00 %
01.07.2016 08:04 19,0 C 85 % 1016,9 hPa 0,0 l/m 3,9 km/h (1 Bft) S-SW 209 0 min 0,000 mm 0,9 UV-I 187 W/m 16,4 C 19,0 C 6,4 km/h (2 Bft) 98,00 %
01.07.2016 08:06 19,1 C 86 % 1016,8 hPa 0,0 l/m 2,5 km/h (1 Bft) S-SW 210 0 min 0,000 mm 0,9 UV-I 201 W/m 16,7 C 19,1 C 4,8 km/h (1 Bft) 100,00 %
01.07.2016 08:08 19,1 C 85 % 1016,9 hPa 0,0 l/m 2,2 km/h (1 Bft) S-SW 210 0 min 0,000 mm 1,0 UV-I 243 W/m 16,5 C 19,1 C 3,2 km/h (1 Bft) 97,87 %
01.07.2016 08:10 19,2 C 85 % 1016,9 hPa 0,0 l/m 3,3 km/h (1 Bft) S-SW 212 2 min 0,000 mm 1,1 UV-I 286 W/m 16,6 C 19,2 C 4,8 km/h (1 Bft) 97,87 %
01.07.2016 08:12 19,2 C 85 % 1017,0 hPa 0,0 l/m 3,8 km/h (1 Bft) W-SW 255 2 min 0,000 mm 1,1 UV-I 294 W/m 16,6 C 19,2 C 4,8 km/h (1 Bft) 97,87 %
01.07.2016 08:14 19,4 C 85 % 1017,0 hPa 0,0 l/m 5,0 km/h (1 Bft) W-SW 244 2 min 0,000 mm 1,3 UV-I 364 W/m 16,8 C 19,4 C 8,0 km/h (2 Bft) 100,00 %
01.07.2016 08:16 19,5 C 85 % 1017,0 hPa 0,0 l/m 5,0 km/h (1 Bft) SW 227 2 min 0,000 mm 1,3 UV-I 442 W/m 16,9 C 19,5 C 6,4 km/h (2 Bft) 100,00 %
01.07.2016 08:18 19,7 C 83 % 1017,0 hPa 0,0 l/m 4,1 km/h (1 Bft) S-SW 198 2 min 0,000 mm 1,4 UV-I 527 W/m 16,7 C 19,7 C 6,4 km/h (2 Bft) 97,92 %
01.07.2016 08:20 19,9 C 83 % 1017,0 hPa 0,0 l/m 4,5 km/h (1 Bft) W-SW 240 2 min 0,000 mm 1,4 UV-I 529 W/m 16,9 C 19,9 C 8,0 km/h (2 Bft) 97,87 %
01.07.2016 08:22 20,0 C 81 % 1017,0 hPa 0,0 l/m 5,1 km/h (1 Bft) SW 231 2 min 0,000 mm 1,3 UV-I 533 W/m 16,6 C 20,0 C 6,4 km/h (2 Bft) 100,00 %
01.07.2016 08:24 20,1 C 81 % 1017,0 hPa 0,0 l/m 5,9 km/h (2 Bft) W-SW 242 2 min 0,000 mm 1,3 UV-I 272 W/m 16,7 C 20,1 C 9,7 km/h (2 Bft) 100,00 %
01.07.2016 08:26 20,1 C 80 % 1017,0 hPa 0,0 l/m 5,7 km/h (1 Bft) W-SW 239 0 min 0,000 mm 1,3 UV-I 225 W/m 16,5 C 20,1 C 8,0 km/h (2 Bft) 100,00 %
01.07.2016 08:28 20,3 C 81 % 1017,0 hPa 0,0 l/m 4,5 km/h (1 Bft) SW 217 2 min 0,000 mm 1,6 UV-I 476 W/m 16,9 C 20,3 C 8,0 km/h (2 Bft) 100,00 %
01.07.2016 08:30 20,4 C 80 % 1017,0 hPa 0,0 l/m 4,2 km/h (1 Bft) S-SW 209 2 min 0,000 mm 1,7 UV-I 511 W/m 16,8 C 20,4 C 6,4 km/h (2 Bft) 100,00 %
01.07.2016 08:32 20,6 C 78 % 1017,0 hPa 0,0 l/m 4,1 km/h (1 Bft) S 174 2 min 0,000 mm 1,7 UV-I 518 W/m 16,6 C 20,6 C 6,4 km/h (2 Bft) 100,00 %
01.07.2016 08:34 20,6 C 78 % 1017,0 hPa 0,0 l/m 3,4 km/h (1 Bft) S 184 2 min 0,000 mm 1,8 UV-I 528 W/m 16,6 C 20,6 C 4,8 km/h (1 Bft) 97,87 %
01.07.2016 08:36 20,5 C 77 % 1017,0 hPa 0,0 l/m 2,2 km/h (1 Bft) S 176 2 min 0,000 mm 1,8 UV-I 531 W/m 16,3 C 20,5 C 4,8 km/h (1 Bft) 100,00 %
01.07.2016 08:38 20,6 C 77 % 1017,0 hPa 0,0 l/m 0,9 km/h (0 Bft) S 176 2 min 0,000 mm 1,8 UV-I 520 W/m 16,4 C 20,6 C 1,6 km/h (1 Bft) 95,74 %
01.07.2016 08:40 20,8 C 78 % 1017,0 hPa 0,0 l/m 2,3 km/h (1 Bft) S-SW 211 2 min 0,000 mm 1,6 UV-I 412 W/m 16,8 C 20,8 C 6,4 km/h (2 Bft) 97,87 %
01.07.2016 08:42 20,7 C 76 % 1017,0 hPa 0,0 l/m 5,8 km/h (2 Bft) W 262 0 min 0,000 mm 1,4 UV-I 260 W/m 16,3 C 20,7 C 9,7 km/h (2 Bft) 93,62 %
01.07.2016 08:44 20,7 C 76 % 1017,1 hPa 0,0 l/m 7,1 km/h (2 Bft) W 263 0 min 0,000 mm 1,4 UV-I 176 W/m 16,3 C 20,4 C 11,3 km/h (2 Bft) 97,14 %
01.07.2016 08:46 20,5 C 76 % 1017,1 hPa 0,0 l/m 4,7 km/h (1 Bft) S-SW 203 0 min 0,000 mm 1,5 UV-I 233 W/m 16,1 C 20,5 C 11,3 km/h (2 Bft) 96,23 %
01.07.2016 08:48 20,5 C 77 % 1017,2 hPa 0,0 l/m 3,1 km/h (1 Bft) W 259 0 min 0,000 mm 1,6 UV-I 233 W/m 16,3 C 20,5 C 6,4 km/h (2 Bft) 95,74 %
01.07.2016 08:50 20,5 C 76 % 1017,2 hPa 0,0 l/m 3,0 km/h (1 Bft) W 260 0 min 0,000 mm 1,8 UV-I 250 W/m 16,1 C 20,5 C 6,4 km/h (2 Bft) 98,00 %
01.07.2016 08:52 20,7 C 78 % 1017,2 hPa 0,0 l/m 2,0 km/h (1 Bft) W 262 2 min 0,000 mm 2,0 UV-I 456 W/m 16,7 C 20,7 C 4,8 km/h (1 Bft) 97,87 %
01.07.2016 08:54 20,9 C 75 % 1017,2 hPa 0,0 l/m 3,1 km/h (1 Bft) W 269 2 min 0,000 mm 2,0 UV-I 493 W/m 16,3 C 20,9 C 6,4 km/h (2 Bft) 97,22 %
01.07.2016 08:56 20,9 C 75 % 1017,2 hPa 0,0 l/m 4,8 km/h (1 Bft) W 259 2 min 0,000 mm 2,1 UV-I 494 W/m 16,3 C 20,9 C 9,7 km/h (2 Bft) 98,00 %
01.07.2016 08:58 21,0 C 74 % 1017,3 hPa 0,0 l/m 3,3 km/h (1 Bft) W 271 2 min 0,000 mm 2,2 UV-I 495 W/m 16,2 C 21,0 C 6,4 km/h (2 Bft) 98,00 %
01.07.2016 09:00 21,1 C 74 % 1017,2 hPa 0,0 l/m 5,8 km/h (2 Bft) W 259 2 min 0,229 mm 2,2 UV-I 491 W/m 16,3 C 21,1 C 9,7 km/h (2 Bft) 97,87 %
01.07.2016 09:02 21,1 C 74 % 1017,2 hPa 0,0 l/m 4,6 km/h (1 Bft) W 279 2 min 0,000 mm 2,2 UV-I 483 W/m 16,3 C 21,1 C 11,3 km/h (2 Bft) 98,00 %
01.07.2016 09:04 21,2 C 74 % 1017,2 hPa 0,0 l/m 5,4 km/h (1 Bft) W-NW 286 2 min 0,000 mm 2,3 UV-I 491 W/m 16,4 C 21,2 C 9,7 km/h (2 Bft) 95,74 %
01.07.2016 09:06 21,2 C 74 % 1017,2 hPa 0,0 l/m 2,8 km/h (1 Bft) W 262 2 min 0,000 mm 2,3 UV-I 484 W/m 16,4 C 21,2 C 6,4 km/h (2 Bft) 95,74 %
01.07.2016 09:08 21,3 C 73 % 1017,2 hPa 0,0 l/m 3,3 km/h (1 Bft) W 265 2 min 0,000 mm 2,4 UV-I 483 W/m 16,3 C 21,3 C 6,4 km/h (2 Bft) 97,87 %
01.07.2016 09:10 21,5 C 75 % 1017,2 hPa 0,0 l/m 3,1 km/h (1 Bft) W 266 2 min 0,000 mm 2,4 UV-I 482 W/m 16,9 C 21,5 C 6,4 km/h (2 Bft) 95,74 %
01.07.2016 09:12 21,5 C 72 % 1017,2 hPa 0,0 l/m 2,6 km/h (1 Bft) W 261 2 min 0,000 mm 2,5 UV-I 475 W/m 16,2 C 21,5 C 6,4 km/h (2 Bft) 100,00 %
01.07.2016 09:14 21,4 C 72 % 1017,2 hPa 0,0 l/m 6,2 km/h (2 Bft) W 279 2 min 0,000 mm 2,5 UV-I 470 W/m 16,1 C 21,4 C 11,3 km/h (2 Bft) 100,00 %
01.07.2016 09:16 21,4 C 70 % 1017,2 hPa 0,0 l/m 4,9 km/h (1 Bft) W 271 2 min 0,000 mm 2,6 UV-I 465 W/m 15,7 C 21,4 C 9,7 km/h (2 Bft) 100,00 %
01.07.2016 09:18 21,4 C 72 % 1017,2 hPa 0,0 l/m 7,2 km/h (2 Bft) W 263 2 min 0,000 mm 2,6 UV-I 460 W/m 16,1 C 21,1 C 11,3 km/h (2 Bft) 97,14 %
01.07.2016 09:20 21,4 C 71 % 1017,2 hPa 0,0 l/m 2,5 km/h (1 Bft) W 273 2 min 0,000 mm 2,7 UV-I 454 W/m 15,9 C 21,4 C 4,8 km/h (1 Bft) 96,00 %
01.07.2016 09:22 21,4 C 72 % 1017,2 hPa 0,0 l/m 4,9 km/h (1 Bft) SW 232 2 min 0,000 mm 2,7 UV-I 440 W/m 16,1 C 21,4 C 9,7 km/h (2 Bft) 100,00 %
01.07.2016 09:24 21,4 C 72 % 1017,2 hPa 0,0 l/m 3,5 km/h (1 Bft) W-SW 242 2 min 0,000 mm 2,8 UV-I 445 W/m 16,1 C 21,4 C 4,8 km/h (1 Bft) 100,00 %
01.07.2016 09:26 21,5 C 72 % 1017,2 hPa 0,0 l/m 2,0 km/h (1 Bft) W 272 2 min 0,000 mm 2,8 UV-I 445 W/m 16,2 C 21,5 C 4,8 km/h (1 Bft) 100,00 %
01.07.2016 09:28 21,6 C 74 % 1017,2 hPa 0,0 l/m 3,5 km/h (1 Bft) W 270 2 min 0,000 mm 2,9 UV-I 445 W/m 16,8 C 21,6 C 6,4 km/h (2 Bft) 96,00 %
01.07.2016 09:30 21,7 C 73 % 1017,2 hPa 0,0 l/m 3,5 km/h (1 Bft) W 266 2 min 0,000 mm 2,9 UV-I 453 W/m 16,6 C 21,7 C 6,4 km/h (2 Bft) 97,87 %
01.07.2016 09:32 21,7 C 74 % 1017,2 hPa 0,0 l/m 3,8 km/h (1 Bft) NW 304 2 min 0,000 mm 3,0 UV-I 460 W/m 16,9 C 21,7 C 6,4 km/h (2 Bft) 97,87 %
01.07.2016 09:34 21,7 C 72 % 1017,2 hPa 0,0 l/m 2,8 km/h (1 Bft) NW 311 2 min 0,000 mm 3,0 UV-I 472 W/m 16,4 C 21,7 C 6,4 km/h (2 Bft) 100,00 %
01.07.2016 09:36 21,8 C 75 % 1017,2 hPa 0,0 l/m 3,3 km/h (1 Bft) NW 321 2 min 0,000 mm 3,1 UV-I 488 W/m 17,2 C 21,8 C 6,4 km/h (2 Bft) 100,00 %
01.07.2016 09:38 21,8 C 72 % 1017,3 hPa 0,0 l/m 2,6 km/h (1 Bft) W-NW 291 2 min 0,000 mm 3,1 UV-I 500 W/m 16,5 C 21,8 C 4,8 km/h (1 Bft) 100,00 %
01.07.2016 09:40 21,8 C 75 % 1017,3 hPa 0,0 l/m 1,1 km/h (1 Bft) NW 322 2 min 0,000 mm 3,1 UV-I 516 W/m 17,2 C 21,8 C 8,0 km/h (2 Bft) 100,00 %
01.07.2016 09:42 22,0 C 73 % 1017,3 hPa 0,0 l/m 5,3 km/h (1 Bft) W-NW 286 2 min 0,000 mm 3,2 UV-I 538 W/m 16,9 C 22,0 C 11,3 km/h (2 Bft) 100,00 %
01.07.2016 09:44 22,1 C 72 % 1017,3 hPa 0,0 l/m 2,7 km/h (1 Bft) W 265 2 min 0,000 mm 3,3 UV-I 555 W/m 16,8 C 22,1 C 6,4 km/h (2 Bft) 97,87 %
01.07.2016 09:46 22,1 C 70 % 1017,2 hPa 0,0 l/m 3,8 km/h (1 Bft) W-SW 258 2 min 0,000 mm 3,3 UV-I 565 W/m 16,4 C 22,1 C 6,4 km/h (2 Bft) 100,00 %
01.07.2016 09:48 22,2 C 72 % 1017,3 hPa 0,0 l/m 3,8 km/h (1 Bft) W-SW 252 2 min 0,000 mm 3,4 UV-I 578 W/m 16,9 C 22,2 C 6,4 km/h (2 Bft) 100,00 %
01.07.2016 09:50 22,3 C 68 % 1017,2 hPa 0,0 l/m 5,8 km/h (2 Bft) W-SW 246 2 min 0,000 mm 3,4 UV-I 594 W/m 16,1 C 22,3 C 11,3 km/h (2 Bft) 100,00 %
01.07.2016 09:52 22,3 C 72 % 1017,2 hPa 0,0 l/m 2,1 km/h (1 Bft) W-SW 258 2 min 0,000 mm 3,4 UV-I 605 W/m 17,0 C 22,3 C 4,8 km/h (1 Bft) 100,00 %
01.07.2016 09:54 22,3 C 70 % 1017,2 hPa 0,0 l/m 1,2 km/h (1 Bft) W 259 2 min 0,000 mm 3,5 UV-I 622 W/m 16,6 C 22,3 C 3,2 km/h (1 Bft) 100,00 %
01.07.2016 09:56 22,4 C 70 % 1017,3 hPa 0,0 l/m 0,9 km/h (0 Bft) SW 224 2 min 0,000 mm 3,6 UV-I 645 W/m 16,7 C 22,4 C 3,2 km/h (1 Bft) 100,00 %
01.07.2016 09:58 22,6 C 72 % 1017,2 hPa 0,0 l/m 2,4 km/h (1 Bft) NW 325 2 min 0,000 mm 3,7 UV-I 668 W/m 17,3 C 22,6 C 4,8 km/h (1 Bft) 95,74 %
01.07.2016 10:00 22,6 C 69 % 1017,2 hPa 0,0 l/m 4,8 km/h (1 Bft) NW 310 2 min 0,305 mm 3,3 UV-I 519 W/m 16,6 C 22,6 C 8,0 km/h (2 Bft) 100,00 %
01.07.2016 10:02 22,6 C 69 % 1017,2 hPa 0,0 l/m 6,3 km/h (2 Bft) W-NW 296 2 min 0,000 mm 3,4 UV-I 397 W/m 16,6 C 22,6 C 12,9 km/h (3 Bft) 100,00 %
01.07.2016 10:04 22,5 C 69 % 1017,2 hPa 0,0 l/m 2,7 km/h (1 Bft) W-NW 284 2 min 0,000 mm 3,8 UV-I 668 W/m 16,5 C 22,5 C 6,4 km/h (2 Bft) 97,14 %
01.07.2016 10:06 22,4 C 69 % 1017,2 hPa 0,0 l/m 3,5 km/h (1 Bft) S 191 2 min 0,000 mm 3,7 UV-I 680 W/m 16,4 C 22,4 C 6,4 km/h (2 Bft) 100,00 %
01.07.2016 10:08 22,4 C 71 % 1017,2 hPa 0,0 l/m 3,4 km/h (1 Bft) W-SW 254 2 min 0,000 mm 3,8 UV-I 685 W/m 16,9 C 22,4 C 6,4 km/h (2 Bft) 97,87 %
01.07.2016 10:10 22,6 C 71 % 1017,2 hPa 0,0 l/m 5,1 km/h (1 Bft) W-SW 257 2 min 0,000 mm 3,9 UV-I 614 W/m 17,1 C 22,6 C 8,0 km/h (2 Bft) 100,00 %
01.07.2016 10:12 22,7 C 73 % 1017,2 hPa 0,0 l/m 2,1 km/h (1 Bft) W 262 2 min 0,000 mm 4,0 UV-I 628 W/m 17,6 C 22,7 C 4,8 km/h (1 Bft) 100,00 %
01.07.2016 10:14 22,7 C 70 % 1017,2 hPa 0,0 l/m 1,7 km/h (1 Bft) W-NW 286 2 min 0,000 mm 3,9 UV-I 713 W/m 16,9 C 22,7 C 3,2 km/h (1 Bft) 97,87 %
01.07.2016 10:16 22,7 C 69 % 1017,2 hPa 0,0 l/m 1,4 km/h (1 Bft) NW 316 2 min 0,000 mm 3,2 UV-I 533 W/m 16,7 C 22,7 C 3,2 km/h (1 Bft) 100,00 %
01.07.2016 10:18 22,7 C 69 % 1017,1 hPa 0,0 l/m 1,5 km/h (1 Bft) N 11 0 min 0,000 mm 2,8 UV-I 243 W/m 16,7 C 22,7 C 3,2 km/h (1 Bft) 100,00 %
01.07.2016 10:20 22,6 C 69 % 1017,1 hPa 0,0 l/m 3,1 km/h (1 Bft) N 350 0 min 0,000 mm 3,7 UV-I 197 W/m 16,6 C 22,6 C 4,8 km/h (1 Bft) 100,00 %
01.07.2016 10:22 22,8 C 72 % 1017,1 hPa 0,0 l/m 2,3 km/h (1 Bft) W 261 2 min 0,000 mm 4,2 UV-I 677 W/m 17,5 C 22,8 C 6,4 km/h (2 Bft) 100,00 %
01.07.2016 10:24 22,9 C 66 % 1017,1 hPa 0,0 l/m 4,8 km/h (1 Bft) W-SW 243 2 min 0,000 mm 4,3 UV-I 665 W/m 16,2 C 22,9 C 6,4 km/h (2 Bft) 100,00 %
01.07.2016 10:26 22,8 C 67 % 1017,1 hPa 0,0 l/m 1,8 km/h (1 Bft) N-NW 346 2 min 0,000 mm 4,2 UV-I 682 W/m 16,3 C 22,8 C 4,8 km/h (1 Bft) 97,87 %
01.07.2016 10:28 22,9 C 69 % 1017,0 hPa 0,0 l/m 1,9 km/h (1 Bft) N-NO 33 2 min 0,000 mm 4,4 UV-I 692 W/m 16,9 C 22,9 C 6,4 km/h (2 Bft) 100,00 %
01.07.2016 10:30 23,1 C 69 % 1017,0 hPa 0,0 l/m 4,3 km/h (1 Bft) NW 308 2 min 0,000 mm 4,4 UV-I 691 W/m 17,1 C 23,1 C 8,0 km/h (2 Bft) 100,00 %
01.07.2016 10:32 23,2 C 69 % 1017,0 hPa 0,0 l/m 2,9 km/h (1 Bft) N-NW 338 2 min 0,000 mm 4,5 UV-I 701 W/m 17,2 C 23,2 C 8,0 km/h (2 Bft) 100,00 %
01.07.2016 10:34 23,1 C 67 % 1017,0 hPa 0,0 l/m 1,8 km/h (1 Bft) NW 304 2 min 0,000 mm 4,5 UV-I 704 W/m 16,6 C 23,1 C 4,8 km/h (1 Bft) 100,00 %
01.07.2016 10:36 23,1 C 66 % 1017,0 hPa 0,0 l/m 2,0 km/h (1 Bft) NW 311 2 min 0,000 mm 4,6 UV-I 712 W/m 16,4 C 23,1 C 3,2 km/h (1 Bft) 95,74 %
01.07.2016 10:38 23,1 C 70 % 1017,0 hPa 0,0 l/m 2,0 km/h (1 Bft) N-NO 19 2 min 0,000 mm 4,7 UV-I 729 W/m 17,3 C 23,1 C 8,0 km/h (2 Bft) 95,74 %
01.07.2016 10:40 23,3 C 69 % 1017,0 hPa 0,0 l/m 2,7 km/h (1 Bft) N 355 2 min 0,000 mm 4,8 UV-I 747 W/m 17,3 C 23,3 C 6,4 km/h (2 Bft) 97,87 %
01.07.2016 10:42 23,4 C 66 % 1017,1 hPa 0,0 l/m 3,3 km/h (1 Bft) W-NW 299 2 min 0,000 mm 4,8 UV-I 756 W/m 16,7 C 23,4 C 8,0 km/h (2 Bft) 96,00 %
01.07.2016 10:44 23,4 C 67 % 1017,1 hPa 0,0 l/m 4,4 km/h (1 Bft) N 5 2 min 0,000 mm 4,9 UV-I 756 W/m 16,9 C 23,4 C 11,3 km/h (2 Bft) 95,74 %
01.07.2016 10:46 23,4 C 70 % 1017,0 hPa 0,0 l/m 1,9 km/h (1 Bft) N-NO 23 2 min 0,000 mm 4,2 UV-I 738 W/m 17,6 C 23,4 C 8,0 km/h (2 Bft) 95,74 %
01.07.2016 10:48 23,3 C 69 % 1017,1 hPa 0,0 l/m 2,8 km/h (1 Bft) W-NW 286 0 min 0,000 mm 3,1 UV-I 353 W/m 17,3 C 23,3 C 6,4 km/h (2 Bft) 91,49 %
01.07.2016 10:50 23,2 C 68 % 1017,0 hPa 0,0 l/m 2,6 km/h (1 Bft) SW 225 0 min 0,000 mm 2,8 UV-I 161 W/m 17,0 C 23,2 C 4,8 km/h (1 Bft) 95,74 %
01.07.2016 10:52 22,9 C 68 % 1017,1 hPa 0,0 l/m 2,3 km/h (1 Bft) NW 306 0 min 0,000 mm 3,0 UV-I 153 W/m 16,7 C 22,9 C 6,4 km/h (2 Bft) 97,87 %
01.07.2016 10:54 22,8 C 72 % 1017,1 hPa 0,0 l/m 3,1 km/h (1 Bft) NW 313 0 min 0,000 mm 4,1 UV-I 160 W/m 17,5 C 22,8 C 4,8 km/h (1 Bft) 97,87 %
01.07.2016 10:56 22,8 C 69 % 1017,1 hPa 0,0 l/m 2,7 km/h (1 Bft) NW 312 0 min 0,000 mm 4,7 UV-I 186 W/m 16,8 C 22,8 C 4,8 km/h (1 Bft) 94,00 %
01.07.2016 10:58 23,1 C 70 % 1017,1 hPa 0,0 l/m 2,5 km/h (1 Bft) W-NW 299 2 min 0,000 mm 5,1 UV-I 755 W/m 17,3 C 23,1 C 6,4 km/h (2 Bft) 97,22 %
01.07.2016 11:00 23,3 C 70 % 1017,1 hPa 0,0 l/m 3,0 km/h (1 Bft) W-NW 297 2 min 0,381 mm 5,2 UV-I 754 W/m 17,5 C 23,3 C 6,4 km/h (2 Bft) 92,00 %
01.07.2016 11:02 23,4 C 70 % 1017,0 hPa 0,0 l/m 1,3 km/h (1 Bft) NW 310 2 min 0,000 mm 5,2 UV-I 753 W/m 17,6 C 23,4 C 3,2 km/h (1 Bft) 98,00 %
01.07.2016 11:04 23,7 C 74 % 1017,0 hPa 0,0 l/m 1,3 km/h (1 Bft) N-NW 347 2 min 0,000 mm 5,3 UV-I 761 W/m 18,8 C 23,7 C 3,2 km/h (1 Bft) 95,74 %
01.07.2016 11:06 23,8 C 66 % 1017,0 hPa 0,0 l/m 2,3 km/h (1 Bft) W 260 2 min 0,000 mm 5,4 UV-I 762 W/m 17,1 C 23,8 C 9,7 km/h (2 Bft) 95,74 %
01.07.2016 11:08 23,9 C 68 % 1016,9 hPa 0,0 l/m 4,0 km/h (1 Bft) N-NW 328 2 min 0,000 mm 5,4 UV-I 769 W/m 17,6 C 23,9 C 9,7 km/h (2 Bft) 100,00 %
01.07.2016 11:10 23,8 C 65 % 1017,0 hPa 0,0 l/m 4,1 km/h (1 Bft) W-NW 296 2 min 0,000 mm 5,5 UV-I 781 W/m 16,8 C 23,8 C 6,4 km/h (2 Bft) 100,00 %
01.07.2016 11:12 23,8 C 67 % 1017,0 hPa 0,0 l/m 3,6 km/h (1 Bft) W 262 2 min 0,000 mm 5,6 UV-I 786 W/m 17,3 C 23,8 C 9,7 km/h (2 Bft) 95,74 %
01.07.2016 11:14 23,8 C 67 % 1017,0 hPa 0,0 l/m 3,9 km/h (1 Bft) W 273 2 min 0,000 mm 5,6 UV-I 793 W/m 17,3 C 23,8 C 11,3 km/h (2 Bft) 97,87 %
01.07.2016 11:16 23,9 C 68 % 1017,0 hPa 0,0 l/m 2,7 km/h (1 Bft) N-NW 334 2 min 0,000 mm 5,7 UV-I 805 W/m 17,6 C 23,9 C 6,4 km/h (2 Bft) 97,87 %
01.07.2016 11:18 24,0 C 64 % 1017,0 hPa 0,0 l/m 4,7 km/h (1 Bft) W-SW 255 2 min 0,000 mm 5,7 UV-I 824 W/m 16,8 C 24,0 C 11,3 km/h (2 Bft) 97,87 %
01.07.2016 11:20 24,0 C 67 % 1017,0 hPa 0,0 l/m 1,5 km/h (1 Bft) N-NW 327 2 min 0,000 mm 5,8 UV-I 851 W/m 17,5 C 24,0 C 3,2 km/h (1 Bft) 100,00 %
01.07.2016 11:22 24,0 C 65 % 1017,0 hPa 0,0 l/m 7,2 km/h (2 Bft) SW 234 2 min 0,000 mm 4,6 UV-I 812 W/m 17,0 C 23,8 C 14,5 km/h (3 Bft) 93,62 %
01.07.2016 11:24 23,9 C 63 % 1017,0 hPa 0,0 l/m 11,2 km/h (2 Bft) S-SW 211 0 min 0,000 mm 3,6 UV-I 286 W/m 16,4 C 22,7 C 14,5 km/h (3 Bft) 97,56 %
01.07.2016 11:26 23,7 C 65 % 1017,0 hPa 0,0 l/m 8,7 km/h (2 Bft) S 182 0 min 0,000 mm 4,2 UV-I 172 W/m 16,7 C 23,0 C 11,3 km/h (2 Bft) 100,00 %
01.07.2016 11:28 23,5 C 66 % 1017,0 hPa 0,0 l/m 1,9 km/h (1 Bft) S 184 0 min 0,000 mm 4,7 UV-I 172 W/m 16,8 C 23,5 C 4,8 km/h (1 Bft) 96,00 %
01.07.2016 11:30 23,8 C 69 % 1016,9 hPa 0,0 l/m 3,5 km/h (1 Bft) N-NO 12 2 min 0,000 mm 6,0 UV-I 735 W/m 17,8 C 23,8 C 6,4 km/h (2 Bft) 100,00 %
01.07.2016 11:32 23,8 C 69 % 1017,0 hPa 0,0 l/m 4,2 km/h (1 Bft) NO 55 2 min 0,000 mm 4,5 UV-I 631 W/m 17,8 C 23,8 C 8,0 km/h (2 Bft) 100,00 %
01.07.2016 11:34 23,7 C 63 % 1017,0 hPa 0,0 l/m 1,3 km/h (1 Bft) NO 55 2 min 0,000 mm 5,9 UV-I 701 W/m 16,2 C 23,7 C 3,2 km/h (1 Bft) 100,00 %
01.07.2016 11:36 23,7 C 63 % 1017,0 hPa 0,0 l/m 2,0 km/h (1 Bft) NW 316 2 min 0,000 mm 6,0 UV-I 814 W/m 16,2 C 23,7 C 4,8 km/h (1 Bft) 100,00 %
01.07.2016 11:38 23,8 C 66 % 1017,0 hPa 0,0 l/m 0,9 km/h (0 Bft) NO 48 2 min 0,000 mm 6,1 UV-I 820 W/m 17,1 C 23,8 C 3,2 km/h (1 Bft) 100,00 %
01.07.2016 11:40 24,1 C 64 % 1017,0 hPa 0,0 l/m 0,9 km/h (0 Bft) N 5 2 min 0,000 mm 6,1 UV-I 822 W/m 16,9 C 24,1 C 3,2 km/h (1 Bft) 98,00 %
01.07.2016 11:42 24,4 C 67 % 1017,0 hPa 0,0 l/m 1,2 km/h (1 Bft) N 360 2 min 0,000 mm 6,2 UV-I 823 W/m 17,9 C 24,4 C 3,2 km/h (1 Bft) 100,00 %
01.07.2016 11:44 24,7 C 66 % 1017,0 hPa 0,0 l/m 1,7 km/h (1 Bft) NW 315 2 min 0,000 mm 6,2 UV-I 824 W/m 17,9 C 24,7 C 4,8 km/h (1 Bft) 97,87 %
01.07.2016 11:46 24,8 C 64 % 1017,0 hPa 0,0 l/m 3,1 km/h (1 Bft) NW 319 2 min 0,000 mm 6,3 UV-I 829 W/m 17,5 C 24,8 C 6,4 km/h (2 Bft) 100,00 %
01.07.2016 11:48 24,7 C 61 % 1017,0 hPa 0,0 l/m 4,5 km/h (1 Bft) N-NW 333 2 min 0,000 mm 6,3 UV-I 836 W/m 16,7 C 24,7 C 6,4 km/h (2 Bft) 97,87 %
01.07.2016 11:50 24,6 C 62 % 1017,0 hPa 0,0 l/m 3,3 km/h (1 Bft) NO 34 2 min 0,000 mm 6,4 UV-I 840 W/m 16,8 C 24,6 C 6,4 km/h (2 Bft) 100,00 %
01.07.2016 11:52 24,7 C 68 % 1017,0 hPa 0,0 l/m 3,4 km/h (1 Bft) N-NW 330 2 min 0,000 mm 6,4 UV-I 847 W/m 18,4 C 24,7 C 6,4 km/h (2 Bft) 100,00 %
01.07.2016 11:54 24,8 C 66 % 1017,0 hPa 0,0 l/m 1,3 km/h (1 Bft) N 10 2 min 0,000 mm 6,5 UV-I 846 W/m 18,0 C 24,8 C 3,2 km/h (1 Bft) 98,00 %
01.07.2016 11:56 24,8 C 62 % 1017,0 hPa 0,0 l/m 2,7 km/h (1 Bft) N-NW 344 2 min 0,000 mm 6,5 UV-I 852 W/m 17,0 C 24,8 C 6,4 km/h (2 Bft) 95,74 %
01.07.2016 11:58 24,8 C 60 % 1016,9 hPa 0,0 l/m 1,3 km/h (1 Bft) N-NW 345 2 min 0,000 mm 6,5 UV-I 858 W/m 16,5 C 24,8 C 3,2 km/h (1 Bft) 100,00 %
01.07.2016 12:00 24,7 C 61 % 1017,0 hPa 0,0 l/m 3,4 km/h (1 Bft) W 274 2 min 0,482 mm 6,5 UV-I 862 W/m 16,7 C 24,7 C 6,4 km/h (2 Bft) 97,87 %
01.07.2016 12:02 24,5 C 61 % 1017,0 hPa 0,0 l/m 3,5 km/h (1 Bft) W-NW 287 2 min 0,000 mm 6,6 UV-I 877 W/m 16,5 C 24,5 C 9,7 km/h (2 Bft) 100,00 %
01.07.2016 12:04 24,4 C 63 % 1016,9 hPa 0,0 l/m 1,7 km/h (1 Bft) S-SO 153 2 min 0,000 mm 6,6 UV-I 880 W/m 16,9 C 24,4 C 3,2 km/h (1 Bft) 100,00 %
01.07.2016 12:06 24,3 C 61 % 1016,8 hPa 0,0 l/m 3,9 km/h (1 Bft) S 170 2 min 0,000 mm 6,1 UV-I 877 W/m 16,3 C 24,3 C 8,0 km/h (2 Bft) 97,37 %
01.07.2016 12:08 24,3 C 63 % 1016,9 hPa 0,0 l/m 1,7 km/h (1 Bft) S-SO 166 2 min 0,000 mm 6,6 UV-I 892 W/m 16,8 C 24,3 C 4,8 km/h (1 Bft) 100,00 %
01.07.2016 12:10 24,4 C 63 % 1016,9 hPa 0,0 l/m 2,5 km/h (1 Bft) S-SO 158 2 min 0,000 mm 6,7 UV-I 908 W/m 16,9 C 24,4 C 8,0 km/h (2 Bft) 100,00 %
01.07.2016 12:12 24,5 C 61 % 1016,9 hPa 0,0 l/m 4,1 km/h (1 Bft) SO 132 2 min 0,000 mm 6,7 UV-I 918 W/m 16,5 C 24,5 C 12,9 km/h (3 Bft) 100,00 %
01.07.2016 12:14 24,4 C 61 % 1016,9 hPa 0,0 l/m 5,6 km/h (1 Bft) SO 128 2 min 0,000 mm 5,6 UV-I 842 W/m 16,4 C 24,4 C 8,0 km/h (2 Bft) 100,00 %
01.07.2016 12:16 24,4 C 61 % 1016,9 hPa 0,0 l/m 6,3 km/h (2 Bft) O-SO 117 2 min 0,000 mm 5,0 UV-I 534 W/m 16,4 C 24,4 C 11,3 km/h (2 Bft) 100,00 %
01.07.2016 12:18 24,4 C 62 % 1016,9 hPa 0,0 l/m 3,7 km/h (1 Bft) W-SW 242 0 min 0,000 mm 4,8 UV-I 456 W/m 16,6 C 24,4 C 6,4 km/h (2 Bft) 100,00 %
01.07.2016 12:20 24,5 C 64 % 1016,8 hPa 0,0 l/m 3,3 km/h (1 Bft) SW 223 2 min 0,000 mm 6,6 UV-I 665 W/m 17,2 C 24,5 C 4,8 km/h (1 Bft) 100,00 %
01.07.2016 12:22 24,8 C 65 % 1016,8 hPa 0,0 l/m 2,3 km/h (1 Bft) W 273 2 min 0,000 mm 6,8 UV-I 894 W/m 17,8 C 24,8 C 4,8 km/h (1 Bft) 100,00 %
01.07.2016 12:24 25,1 C 67 % 1016,8 hPa 0,0 l/m 2,0 km/h (1 Bft) W-NW 290 2 min 0,000 mm 5,9 UV-I 921 W/m 18,5 C 25,1 C 6,4 km/h (2 Bft) 97,87 %
01.07.2016 12:26 25,0 C 62 % 1016,7 hPa 0,0 l/m 4,5 km/h (1 Bft) N-NO 22 2 min 0,000 mm 4,0 UV-I 506 W/m 17,2 C 25,0 C 8,0 km/h (2 Bft) 100,00 %
01.07.2016 12:28 24,7 C 64 % 1016,8 hPa 0,0 l/m 1,5 km/h (1 Bft) N 9 0 min 0,000 mm 4,1 UV-I 216 W/m 17,4 C 24,7 C 3,2 km/h (1 Bft) 97,87 %
01.07.2016 12:30 24,4 C 61 % 1016,8 hPa 0,0 l/m 2,5 km/h (1 Bft) W-SW 246 0 min 0,000 mm 4,0 UV-I 265 W/m 16,4 C 24,4 C 6,4 km/h (2 Bft) 97,87 %
01.07.2016 12:32 24,4 C 60 % 1016,8 hPa 0,0 l/m 3,9 km/h (1 Bft) W-NW 301 0 min 0,000 mm 5,7 UV-I 442 W/m 16,1 C 24,4 C 6,4 km/h (2 Bft) 97,92 %
01.07.2016 12:34 24,4 C 61 % 1016,7 hPa 0,0 l/m 2,9 km/h (1 Bft) N-NW 346 2 min 0,000 mm 6,5 UV-I 970 W/m 16,4 C 24,4 C 4,8 km/h (1 Bft) 93,62 %
01.07.2016 12:36 24,7 C 63 % 1016,7 hPa 0,0 l/m 5,9 km/h (2 Bft) NO 42 2 min 0,000 mm 6,2 UV-I 891 W/m 17,2 C 24,7 C 8,0 km/h (2 Bft) 95,74 %
01.07.2016 12:38 25,1 C 60 % 1016,7 hPa 0,0 l/m 6,6 km/h (2 Bft) NO 55 2 min 0,000 mm 6,9 UV-I 885 W/m 16,8 C 25,1 C 8,0 km/h (2 Bft) 97,87 %
01.07.2016 12:40 25,2 C 59 % 1016,7 hPa 0,0 l/m 3,5 km/h (1 Bft) O 96 2 min 0,000 mm 7,0 UV-I 914 W/m 16,6 C 25,2 C 4,8 km/h (1 Bft) 97,87 %
01.07.2016 12:42 25,2 C 59 % 1016,7 hPa 0,0 l/m 2,4 km/h (1 Bft) N-NO 31 2 min 0,000 mm 5,4 UV-I 646 W/m 16,6 C 25,2 C 4,8 km/h (1 Bft) 95,74 %
01.07.2016 12:44 25,2 C 65 % 1016,7 hPa 0,0 l/m 1,7 km/h (1 Bft) N-NO 31 2 min 0,000 mm 6,8 UV-I 724 W/m 18,1 C 25,2 C 3,2 km/h (1 Bft) 97,87 %
01.07.2016 12:46 25,3 C 63 % 1016,6 hPa 0,0 l/m 2,2 km/h (1 Bft) N-NW 327 2 min 0,000 mm 6,8 UV-I 898 W/m 17,7 C 25,3 C 3,2 km/h (1 Bft) 97,87 %
01.07.2016 12:48 25,6 C 65 % 1016,6 hPa 0,0 l/m 2,4 km/h (1 Bft) SO 132 2 min 0,000 mm 6,5 UV-I 897 W/m 18,5 C 25,6 C 6,4 km/h (2 Bft) 97,87 %
01.07.2016 12:50 25,7 C 60 % 1016,6 hPa 0,0 l/m 1,7 km/h (1 Bft) W-NW 303 2 min 0,000 mm 6,9 UV-I 889 W/m 17,3 C 25,7 C 3,2 km/h (1 Bft) 97,87 %
01.07.2016 12:52 25,9 C 61 % 1016,6 hPa 0,0 l/m 2,3 km/h (1 Bft) S 181 2 min 0,000 mm 6,9 UV-I 888 W/m 17,8 C 25,9 C 4,8 km/h (1 Bft) 95,83 %
01.07.2016 12:54 26,1 C 61 % 1016,5 hPa 0,0 l/m 2,8 km/h (1 Bft) SW 227 2 min 0,000 mm 7,0 UV-I 895 W/m 18,0 C 26,1 C 6,4 km/h (2 Bft) 97,87 %
01.07.2016 12:56 26,1 C 57 % 1016,5 hPa 0,0 l/m 5,5 km/h (1 Bft) W-NW 288 2 min 0,000 mm 7,0 UV-I 880 W/m 16,9 C 26,1 C 9,7 km/h (2 Bft) 97,87 %
01.07.2016 12:58 25,8 C 55 % 1016,5 hPa 0,0 l/m 2,8 km/h (1 Bft) W-NW 298 2 min 0,000 mm 7,0 UV-I 882 W/m 16,1 C 25,8 C 6,4 km/h (2 Bft) 100,00 %
01.07.2016 13:00 25,8 C 59 % 1016,4 hPa 0,0 l/m 0,8 km/h (0 Bft) W-NW 301 2 min 0,483 mm 7,0 UV-I 895 W/m 17,2 C 25,8 C 1,6 km/h (1 Bft) 97,87 %
01.07.2016 13:02 25,8 C 58 % 1016,4 hPa 0,0 l/m 0,6 km/h (0 Bft) W-NW 300 2 min 0,000 mm 7,0 UV-I 893 W/m 16,9 C 25,8 C 3,2 km/h (1 Bft) 100,00 %
01.07.2016 13:04 25,7 C 58 % 1016,4 hPa 0,0 l/m 1,6 km/h (1 Bft) S-SW 213 2 min 0,000 mm 7,0 UV-I 889 W/m 16,8 C 25,7 C 4,8 km/h (1 Bft) 97,87 %
01.07.2016 13:06 25,7 C 57 % 1016,4 hPa 0,0 l/m 0,8 km/h (0 Bft) SW 214 2 min 0,000 mm 6,8 UV-I 884 W/m 16,5 C 25,7 C 1,6 km/h (1 Bft) 100,00 %
01.07.2016 13:08 25,8 C 66 % 1016,4 hPa 0,0 l/m 0,6 km/h (0 Bft) SW 214 2 min 0,000 mm 6,9 UV-I 875 W/m 19,0 C 25,8 C 1,6 km/h (1 Bft) 97,87 %
01.07.2016 13:10 26,0 C 63 % 1016,2 hPa 0,0 l/m 2,8 km/h (1 Bft) N-NO 18 2 min 0,000 mm 7,0 UV-I 873 W/m 18,4 C 26,0 C 6,4 km/h (2 Bft) 97,87 %
01.07.2016 13:12 26,2 C 59 % 1016,2 hPa 0,0 l/m 3,2 km/h (1 Bft) W-NW 297 2 min 0,000 mm 6,9 UV-I 872 W/m 17,5 C 26,2 C 4,8 km/h (1 Bft) 100,00 %
01.07.2016 13:14 26,2 C 59 % 1016,2 hPa 0,0 l/m 2,7 km/h (1 Bft) N-NO 15 2 min 0,000 mm 6,8 UV-I 871 W/m 17,5 C 26,2 C 6,4 km/h (2 Bft) 97,87 %
01.07.2016 13:16 26,2 C 58 % 1016,2 hPa 0,0 l/m 3,7 km/h (1 Bft) NW 313 2 min 0,000 mm 6,6 UV-I 871 W/m 17,3 C 26,2 C 6,4 km/h (2 Bft) 97,87 %
01.07.2016 13:20 25,9 C 55 % 1016,2 hPa 0,0 l/m 4,8 km/h (1 Bft) NW 315 4 min 0,000 mm 6,6 UV-I 877 W/m 16,2 C 25,9 C 8,0 km/h (2 Bft) 96,49 %
01.07.2016 13:25 25,8 C 60 % 1016,1 hPa 0,0 l/m 3,2 km/h (1 Bft) NW 315 5 min 0,000 mm 5,6 UV-I 930 W/m 17,4 C 25,8 C 9,7 km/h (2 Bft) 98,25 %
01.07.2016 13:30 25,3 C 60 % 1016,1 hPa 0,0 l/m 1,6 km/h (1 Bft) NW 315 0 min 0,000 mm 4,6 UV-I 161 W/m 17,0 C 25,3 C 6,4 km/h (2 Bft) 96,49 %
01.07.2016 13:35 25,6 C 59 % 1015,9 hPa 0,0 l/m 1,6 km/h (1 Bft) N-NW 337 5 min 0,000 mm 6,8 UV-I 872 W/m 17,0 C 25,6 C 3,2 km/h (1 Bft) 100,00 %
01.07.2016 13:40 25,9 C 58 % 1015,9 hPa 0,0 l/m 1,6 km/h (1 Bft) N-NW 337 5 min 0,000 mm 6,8 UV-I 869 W/m 17,0 C 25,9 C 3,2 km/h (1 Bft) 100,00 %
01.07.2016 13:45 26,0 C 57 % 1015,9 hPa 0,0 l/m 1,6 km/h (1 Bft) N-NW 337 5 min 0,000 mm 6,9 UV-I 888 W/m 16,8 C 26,0 C 6,4 km/h (2 Bft) 100,00 %
01.07.2016 13:48 26,3 C 58 % 1015,9 hPa 0,0 l/m 3,7 km/h (1 Bft) NO 55 3 min 0,000 mm 6,9 UV-I 885 W/m 17,4 C 26,3 C 8,0 km/h (2 Bft) 99,73 %
01.07.2016 13:50 26,4 C 55 % 1015,9 hPa 0,0 l/m 4,8 km/h (1 Bft) N-NO 22 2 min 0,000 mm 7,0 UV-I 897 W/m 16,6 C 26,4 C 8,0 km/h (2 Bft) 99,12 %
01.07.2016 13:55 26,4 C 53 % 1015,9 hPa 0,0 l/m 3,2 km/h (1 Bft) NO 45 5 min 0,000 mm 6,9 UV-I 896 W/m 16,0 C 26,4 C 6,4 km/h (2 Bft) 100,00 %
01.07.2016 13:58 26,5 C 51 % 1015,8 hPa 0,0 l/m 7,8 km/h (2 Bft) NO 55 3 min 0,000 mm 6,8 UV-I 898 W/m 15,5 C 26,2 C 9,7 km/h (2 Bft) 100,00 %
01.07.2016 14:00 26,7 C 56 % 1015,8 hPa 0,0 l/m 4,1 km/h (1 Bft) NO 52 2 min 0,533 mm 6,8 UV-I 910 W/m 17,2 C 26,7 C 6,4 km/h (2 Bft) 97,37 %
01.07.2016 14:02 26,5 C 51 % 1015,8 hPa 0,0 l/m 3,4 km/h (1 Bft) S-SO 150 2 min 0,000 mm 6,8 UV-I 897 W/m 15,5 C 26,5 C 6,4 km/h (2 Bft) 98,00 %
01.07.2016 14:04 26,6 C 51 % 1015,7 hPa 0,0 l/m 5,3 km/h (1 Bft) SO 137 2 min 0,000 mm 6,7 UV-I 893 W/m 15,6 C 26,6 C 12,9 km/h (3 Bft) 100,00 %
01.07.2016 14:06 26,7 C 56 % 1015,7 hPa 0,0 l/m 5,7 km/h (1 Bft) N-NO 21 2 min 0,000 mm 6,7 UV-I 888 W/m 17,2 C 26,7 C 9,7 km/h (2 Bft) 100,00 %
01.07.2016 14:08 26,7 C 50 % 1015,7 hPa 0,0 l/m 2,4 km/h (1 Bft) N-NO 21 2 min 0,000 mm 6,7 UV-I 889 W/m 15,4 C 26,7 C 4,8 km/h (1 Bft) 98,00 %
01.07.2016 14:10 26,7 C 53 % 1015,7 hPa 0,0 l/m 2,1 km/h (1 Bft) NW 319 2 min 0,000 mm 6,6 UV-I 883 W/m 16,3 C 26,7 C 4,8 km/h (1 Bft) 95,74 %
01.07.2016 14:12 26,8 C 52 % 1015,7 hPa 0,0 l/m 2,4 km/h (1 Bft) S-SO 150 2 min 0,000 mm 6,6 UV-I 894 W/m 16,1 C 26,8 C 8,0 km/h (2 Bft) 100,00 %
01.07.2016 14:14 26,6 C 57 % 1015,6 hPa 0,0 l/m 2,1 km/h (1 Bft) S-SO 159 2 min 0,000 mm 6,6 UV-I 895 W/m 17,4 C 26,6 C 6,4 km/h (2 Bft) 100,00 %
01.07.2016 14:16 26,7 C 54 % 1015,7 hPa 0,0 l/m 1,5 km/h (1 Bft) N-NO 24 2 min 0,000 mm 6,6 UV-I 893 W/m 16,6 C 26,7 C 6,4 km/h (2 Bft) 97,87 %
01.07.2016 14:18 26,9 C 57 % 1015,7 hPa 0,0 l/m 1,1 km/h (1 Bft) N 9 2 min 0,000 mm 6,6 UV-I 888 W/m 17,6 C 26,9 C 1,6 km/h (1 Bft) 97,87 %
01.07.2016 14:20 27,2 C 53 % 1015,6 hPa 0,0 l/m 1,8 km/h (1 Bft) N-NW 327 2 min 0,000 mm 6,5 UV-I 882 W/m 16,8 C 27,2 C 3,2 km/h (1 Bft) 97,37 %
01.07.2016 14:22 27,1 C 53 % 1015,6 hPa 0,0 l/m 2,7 km/h (1 Bft) NO 36 2 min 0,000 mm 6,4 UV-I 878 W/m 16,7 C 27,1 C 4,8 km/h (1 Bft) 98,00 %
01.07.2016 14:24 26,9 C 50 % 1015,6 hPa 0,0 l/m 2,7 km/h (1 Bft) NO 36 2 min 0,000 mm 6,4 UV-I 894 W/m 15,6 C 26,9 C 4,8 km/h (1 Bft) 98,00 %
01.07.2016 14:26 27,0 C 51 % 1015,6 hPa 0,0 l/m 0,9 km/h (0 Bft) NO 38 2 min 0,000 mm 6,4 UV-I 896 W/m 16,0 C 27,0 C 4,8 km/h (1 Bft) 97,87 %
01.07.2016 14:28 27,2 C 55 % 1015,5 hPa 0,0 l/m 3,0 km/h (1 Bft) N-NO 24 2 min 0,000 mm 6,3 UV-I 913 W/m 17,4 C 27,2 C 4,8 km/h (1 Bft) 91,49 %
01.07.2016 14:30 27,2 C 59 % 1015,5 hPa 0,0 l/m 2,7 km/h (1 Bft) NO 34 2 min 0,000 mm 6,0 UV-I 918 W/m 18,5 C 27,2 C 4,8 km/h (1 Bft) 97,37 %
01.07.2016 14:32 27,3 C 49 % 1015,6 hPa 0,0 l/m 2,6 km/h (1 Bft) NO 37 2 min 0,000 mm 6,2 UV-I 905 W/m 15,6 C 27,3 C 4,8 km/h (1 Bft) 98,15 %
01.07.2016 14:34 27,4 C 51 % 1015,5 hPa 0,0 l/m 3,4 km/h (1 Bft) N-NO 26 2 min 0,000 mm 6,3 UV-I 894 W/m 16,3 C 27,4 C 4,8 km/h (1 Bft) 95,74 %
01.07.2016 14:36 27,3 C 49 % 1015,5 hPa 0,0 l/m 4,5 km/h (1 Bft) N-NO 32 2 min 0,000 mm 6,3 UV-I 903 W/m 15,6 C 27,3 C 6,4 km/h (2 Bft) 95,74 %
01.07.2016 14:38 27,4 C 54 % 1015,5 hPa 0,0 l/m 1,6 km/h (1 Bft) N-NO 31 2 min 0,000 mm 6,3 UV-I 896 W/m 17,3 C 27,4 C 3,2 km/h (1 Bft) 95,74 %
01.07.2016 14:40 27,3 C 51 % 1015,4 hPa 0,0 l/m 1,1 km/h (1 Bft) N 5 2 min 0,000 mm 6,2 UV-I 881 W/m 16,3 C 27,3 C 3,2 km/h (1 Bft) 95,92 %
01.07.2016 14:42 27,4 C 57 % 1015,5 hPa 0,0 l/m 1,0 km/h (0 Bft) W-SW 249 2 min 0,000 mm 6,0 UV-I 865 W/m 18,1 C 27,4 C 4,8 km/h (1 Bft) 97,87 %
01.07.2016 14:44 27,4 C 49 % 1015,4 hPa 0,0 l/m 6,8 km/h (2 Bft) S-SW 208 2 min 0,000 mm 6,0 UV-I 869 W/m 15,7 C 27,3 C 12,9 km/h (3 Bft) 95,74 %
01.07.2016 14:46 27,3 C 47 % 1015,4 hPa 0,0 l/m 5,5 km/h (1 Bft) W-NW 292 2 min 0,000 mm 6,1 UV-I 880 W/m 15,0 C 27,3 C 9,7 km/h (2 Bft) 97,92 %
01.07.2016 14:48 27,3 C 49 % 1015,4 hPa 0,0 l/m 4,4 km/h (1 Bft) W 263 2 min 0,000 mm 6,0 UV-I 878 W/m 15,6 C 27,3 C 11,3 km/h (2 Bft) 100,00 %
01.07.2016 14:50 27,4 C 50 % 1015,4 hPa 0,0 l/m 7,8 km/h (2 Bft) S-SW 194 2 min 0,000 mm 6,0 UV-I 874 W/m 16,0 C 27,2 C 12,9 km/h (3 Bft) 95,74 %
01.07.2016 14:52 27,3 C 48 % 1015,4 hPa 0,0 l/m 3,3 km/h (1 Bft) S-SO 157 2 min 0,000 mm 5,9 UV-I 862 W/m 15,3 C 27,3 C 6,4 km/h (2 Bft) 100,00 %
01.07.2016 14:54 27,1 C 50 % 1015,3 hPa 0,0 l/m 2,6 km/h (1 Bft) SW 216 2 min 0,000 mm 5,8 UV-I 845 W/m 15,8 C 27,1 C 6,4 km/h (2 Bft) 100,00 %
01.07.2016 14:56 27,0 C 51 % 1015,3 hPa 0,0 l/m 5,5 km/h (1 Bft) SO 138 2 min 0,000 mm 5,8 UV-I 848 W/m 16,0 C 27,0 C 8,0 km/h (2 Bft) 97,87 %
01.07.2016 14:58 27,1 C 46 % 1015,3 hPa 0,0 l/m 4,8 km/h (1 Bft) S-SO 159 2 min 0,000 mm 5,7 UV-I 872 W/m 14,5 C 27,1 C 8,0 km/h (2 Bft) 100,00 %
01.07.2016 15:00 27,2 C 45 % 1015,3 hPa 0,0 l/m 3,5 km/h (1 Bft) S 187 2 min 0,585 mm 5,1 UV-I 868 W/m 14,2 C 27,2 C 6,4 km/h (2 Bft) 97,87 %
01.07.2016 15:02 27,2 C 48 % 1015,2 hPa 0,0 l/m 2,2 km/h (1 Bft) W-SW 250 2 min 0,000 mm 5,6 UV-I 843 W/m 15,2 C 27,2 C 4,8 km/h (1 Bft) 100,00 %
01.07.2016 15:04 27,2 C 46 % 1015,2 hPa 0,0 l/m 4,1 km/h (1 Bft) SW 230 2 min 0,000 mm 5,5 UV-I 831 W/m 14,6 C 27,2 C 6,4 km/h (2 Bft) 97,87 %
01.07.2016 15:06 27,2 C 47 % 1015,2 hPa 0,0 l/m 5,2 km/h (1 Bft) W-SW 246 2 min 0,000 mm 5,4 UV-I 813 W/m 14,9 C 27,2 C 8,0 km/h (2 Bft) 100,00 %
01.07.2016 15:08 27,2 C 52 % 1015,2 hPa 0,0 l/m 3,2 km/h (1 Bft) W-NW 284 2 min 0,000 mm 5,3 UV-I 805 W/m 16,5 C 27,2 C 4,8 km/h (1 Bft) 100,00 %
01.07.2016 15:10 27,2 C 48 % 1015,1 hPa 0,0 l/m 2,4 km/h (1 Bft) W-NW 284 2 min 0,000 mm 5,3 UV-I 814 W/m 15,2 C 27,2 C 6,4 km/h (2 Bft) 100,00 %
01.07.2016 15:12 27,2 C 50 % 1015,1 hPa 0,0 l/m 6,4 km/h (2 Bft) W-SW 252 2 min 0,000 mm 4,7 UV-I 827 W/m 15,9 C 27,2 C 11,3 km/h (2 Bft) 97,87 %
01.07.2016 15:14 27,1 C 51 % 1015,1 hPa 0,0 l/m 4,4 km/h (1 Bft) NW 314 0 min 0,000 mm 2,9 UV-I 199 W/m 16,1 C 27,1 C 6,4 km/h (2 Bft) 100,00 %
01.07.2016 15:16 26,7 C 53 % 1015,1 hPa 0,0 l/m 2,3 km/h (1 Bft) NW 321 0 min 0,000 mm 4,5 UV-I 151 W/m 16,3 C 26,7 C 4,8 km/h (1 Bft) 100,00 %
01.07.2016 15:18 26,8 C 56 % 1015,1 hPa 0,0 l/m 3,1 km/h (1 Bft) N-NW 343 2 min 0,000 mm 5,2 UV-I 704 W/m 17,3 C 26,8 C 6,4 km/h (2 Bft) 100,00 %
01.07.2016 15:20 26,9 C 53 % 1015,1 hPa 0,0 l/m 2,3 km/h (1 Bft) NW 318 2 min 0,000 mm 5,1 UV-I 838 W/m 16,5 C 26,9 C 6,4 km/h (2 Bft) 94,34 %
01.07.2016 15:22 27,1 C 57 % 1015,0 hPa 0,0 l/m 3,3 km/h (1 Bft) N-NW 330 2 min 0,000 mm 5,1 UV-I 821 W/m 17,8 C 27,1 C 6,4 km/h (2 Bft) 97,87 %
01.07.2016 15:24 27,2 C 51 % 1015,0 hPa 0,0 l/m 2,6 km/h (1 Bft) N-NW 335 2 min 0,000 mm 5,0 UV-I 803 W/m 16,2 C 27,2 C 4,8 km/h (1 Bft) 93,62 %
01.07.2016 15:26 27,2 C 51 % 1015,0 hPa 0,0 l/m 2,6 km/h (1 Bft) N-NW 338 2 min 0,000 mm 4,2 UV-I 770 W/m 16,2 C 27,2 C 6,4 km/h (2 Bft) 95,83 %
01.07.2016 15:28 27,2 C 51 % 1015,0 hPa 0,0 l/m 3,5 km/h (1 Bft) W-NW 296 2 min 0,000 mm 4,9 UV-I 828 W/m 16,2 C 27,2 C 6,4 km/h (2 Bft) 100,00 %
01.07.2016 15:30 27,3 C 51 % 1015,0 hPa 0,0 l/m 1,1 km/h (1 Bft) N-NW 334 2 min 0,000 mm 4,9 UV-I 828 W/m 16,3 C 27,3 C 3,2 km/h (1 Bft) 100,00 %
01.07.2016 15:32 27,3 C 52 % 1015,0 hPa 0,0 l/m 2,7 km/h (1 Bft) NW 306 2 min 0,000 mm 4,2 UV-I 841 W/m 16,6 C 27,3 C 4,8 km/h (1 Bft) 94,29 %
01.07.2016 15:34 27,4 C 51 % 1014,9 hPa 0,0 l/m 3,1 km/h (1 Bft) W 270 2 min 0,000 mm 5,0 UV-I 847 W/m 16,3 C 27,4 C 6,4 km/h (2 Bft) 98,00 %
01.07.2016 15:36 27,6 C 50 % 1014,9 hPa 0,0 l/m 2,2 km/h (1 Bft) W-SW 246 2 min 0,000 mm 4,9 UV-I 834 W/m 16,2 C 27,6 C 4,8 km/h (1 Bft) 100,00 %
01.07.2016 15:38 27,7 C 49 % 1014,9 hPa 0,0 l/m 3,2 km/h (1 Bft) W-NW 296 2 min 0,000 mm 4,9 UV-I 826 W/m 16,0 C 27,7 C 4,8 km/h (1 Bft) 100,00 %
01.07.2016 15:40 27,8 C 48 % 1014,8 hPa 0,0 l/m 1,8 km/h (1 Bft) W-NW 301 2 min 0,000 mm 4,8 UV-I 823 W/m 15,8 C 27,8 C 3,2 km/h (1 Bft) 97,87 %
01.07.2016 15:42 27,7 C 53 % 1014,9 hPa 0,0 l/m 4,6 km/h (1 Bft) NO 38 2 min 0,000 mm 4,7 UV-I 824 W/m 17,2 C 27,7 C 8,0 km/h (2 Bft) 100,00 %
01.07.2016 15:44 27,7 C 50 % 1014,8 hPa 0,0 l/m 8,9 km/h (2 Bft) NO 49 2 min 0,000 mm 4,7 UV-I 837 W/m 16,3 C 27,3 C 19,3 km/h (3 Bft) 97,87 %
01.07.2016 15:46 27,9 C 56 % 1014,8 hPa 0,0 l/m 7,6 km/h (2 Bft) N 355 2 min 0,000 mm 4,3 UV-I 842 W/m 18,3 C 27,7 C 22,5 km/h (4 Bft) 100,00 %
01.07.2016 15:48 27,9 C 52 % 1014,8 hPa 0,0 l/m 7,8 km/h (2 Bft) O-NO 70 2 min 0,000 mm 4,0 UV-I 845 W/m 17,1 C 27,7 C 14,5 km/h (3 Bft) 100,00 %
01.07.2016 15:50 28,0 C 53 % 1014,7 hPa 0,0 l/m 8,8 km/h (2 Bft) NO 37 2 min 0,000 mm 4,5 UV-I 853 W/m 17,5 C 27,6 C 12,9 km/h (3 Bft) 100,00 %
01.07.2016 15:52 28,0 C 50 % 1014,7 hPa 0,0 l/m 8,2 km/h (2 Bft) O-NO 73 2 min 0,000 mm 4,4 UV-I 855 W/m 16,6 C 27,7 C 14,5 km/h (3 Bft) 100,00 %
01.07.2016 15:54 28,1 C 49 % 1014,7 hPa 0,0 l/m 12,3 km/h (3 Bft) NO 46 2 min 0,000 mm 4,4 UV-I 857 W/m 16,4 C 27,3 C 17,7 km/h (3 Bft) 100,00 %
01.07.2016 15:56 27,9 C 53 % 1014,7 hPa 0,0 l/m 8,9 km/h (2 Bft) O 96 2 min 0,000 mm 4,3 UV-I 853 W/m 17,4 C 27,5 C 14,5 km/h (3 Bft) 100,00 %
01.07.2016 15:58 27,9 C 48 % 1014,7 hPa 0,0 l/m 9,8 km/h (2 Bft) O-NO 57 2 min 0,000 mm 4,2 UV-I 847 W/m 15,9 C 27,4 C 16,1 km/h (3 Bft) 100,00 %
01.07.2016 16:00 27,9 C 49 % 1014,7 hPa 0,0 l/m 10,0 km/h (2 Bft) NO 52 2 min 0,533 mm 4,2 UV-I 841 W/m 16,2 C 27,4 C 14,5 km/h (3 Bft) 97,87 %
01.07.2016 16:02 27,9 C 52 % 1014,7 hPa 0,0 l/m 8,1 km/h (2 Bft) NO 38 2 min 0,000 mm 4,1 UV-I 822 W/m 17,1 C 27,6 C 14,5 km/h (3 Bft) 100,00 %
01.07.2016 16:04 27,9 C 50 % 1014,7 hPa 0,0 l/m 7,3 km/h (2 Bft) NO 44 2 min 0,000 mm 4,1 UV-I 808 W/m 16,5 C 27,8 C 12,9 km/h (3 Bft) 100,00 %
01.07.2016 16:06 27,9 C 52 % 1014,7 hPa 0,0 l/m 8,5 km/h (2 Bft) N-NO 23 2 min 0,000 mm 4,0 UV-I 791 W/m 17,1 C 27,6 C 16,1 km/h (3 Bft) 100,00 %
01.07.2016 16:08 27,8 C 56 % 1014,7 hPa 0,0 l/m 6,1 km/h (2 Bft) NO 34 2 min 0,000 mm 3,9 UV-I 769 W/m 18,2 C 27,8 C 14,5 km/h (3 Bft) 97,87 %
01.07.2016 16:10 27,7 C 51 % 1014,7 hPa 0,0 l/m 7,5 km/h (2 Bft) NO 44 2 min 0,000 mm 3,8 UV-I 730 W/m 16,6 C 27,5 C 12,9 km/h (3 Bft) 94,74 %
01.07.2016 16:12 27,8 C 49 % 1014,7 hPa 0,0 l/m 6,8 km/h (2 Bft) O-NO 67 2 min 0,000 mm 3,7 UV-I 699 W/m 16,1 C 27,7 C 11,3 km/h (2 Bft) 97,87 %
01.07.2016 16:14 27,7 C 49 % 1014,7 hPa 0,0 l/m 7,0 km/h (2 Bft) NO 39 2 min 0,000 mm 3,6 UV-I 691 W/m 16,0 C 27,6 C 11,3 km/h (2 Bft) 96,23 %
01.07.2016 16:16 27,7 C 50 % 1014,7 hPa 0,0 l/m 6,4 km/h (2 Bft) N-NO 24 2 min 0,000 mm 3,5 UV-I 690 W/m 16,3 C 27,7 C 9,7 km/h (2 Bft) 97,87 %
01.07.2016 16:18 27,5 C 51 % 1014,6 hPa 0,0 l/m 3,1 km/h (1 Bft) NO 47 2 min 0,000 mm 3,3 UV-I 687 W/m 16,4 C 27,5 C 6,4 km/h (2 Bft) 94,74 %
01.07.2016 16:20 27,4 C 49 % 1014,6 hPa 0,0 l/m 6,5 km/h (2 Bft) O 88 2 min 0,000 mm 2,3 UV-I 588 W/m 15,7 C 27,4 C 11,3 km/h (2 Bft) 93,62 %
01.07.2016 16:22 27,3 C 53 % 1014,6 hPa 0,0 l/m 4,8 km/h (1 Bft) NO 36 0 min 0,000 mm 2,5 UV-I 184 W/m 16,9 C 27,3 C 6,4 km/h (2 Bft) 98,00 %
01.07.2016 16:24 27,1 C 53 % 1014,7 hPa 0,0 l/m 3,0 km/h (1 Bft) NO 53 0 min 0,000 mm 2,9 UV-I 229 W/m 16,7 C 27,1 C 6,4 km/h (2 Bft) 96,00 %
01.07.2016 16:26 27,3 C 52 % 1014,7 hPa 0,0 l/m 6,7 km/h (2 Bft) NO 38 2 min 0,000 mm 3,3 UV-I 487 W/m 16,6 C 27,2 C 11,3 km/h (2 Bft) 98,00 %
01.07.2016 16:28 27,4 C 48 % 1014,6 hPa 0,0 l/m 4,2 km/h (1 Bft) O-NO 60 2 min 0,000 mm 3,4 UV-I 672 W/m 15,4 C 27,4 C 6,4 km/h (2 Bft) 97,87 %
01.07.2016 16:30 27,6 C 52 % 1014,6 hPa 0,0 l/m 2,4 km/h (1 Bft) NO 38 2 min 0,000 mm 3,4 UV-I 668 W/m 16,8 C 27,6 C 3,2 km/h (1 Bft) 95,74 %
01.07.2016 16:32 27,6 C 49 % 1014,6 hPa 0,0 l/m 2,0 km/h (1 Bft) NO 38 2 min 0,000 mm 3,3 UV-I 665 W/m 15,9 C 27,6 C 4,8 km/h (1 Bft) 97,87 %
01.07.2016 16:34 27,5 C 48 % 1014,6 hPa 0,0 l/m 4,0 km/h (1 Bft) N 355 2 min 0,000 mm 3,3 UV-I 658 W/m 15,5 C 27,5 C 6,4 km/h (2 Bft) 95,74 %
01.07.2016 16:36 27,4 C 49 % 1014,5 hPa 0,0 l/m 2,5 km/h (1 Bft) N 5 2 min 0,000 mm 3,2 UV-I 653 W/m 15,7 C 27,4 C 4,8 km/h (1 Bft) 97,87 %
01.07.2016 16:38 27,4 C 56 % 1014,5 hPa 0,0 l/m 6,0 km/h (2 Bft) NO 42 2 min 0,000 mm 3,2 UV-I 645 W/m 17,8 C 27,4 C 9,7 km/h (2 Bft) 97,22 %
01.07.2016 16:40 27,4 C 52 % 1014,5 hPa 0,0 l/m 4,0 km/h (1 Bft) N-NO 14 2 min 0,000 mm 3,1 UV-I 635 W/m 16,7 C 27,4 C 6,4 km/h (2 Bft) 100,00 %
01.07.2016 16:42 27,4 C 53 % 1014,5 hPa 0,0 l/m 3,2 km/h (1 Bft) N-NO 13 2 min 0,000 mm 3,1 UV-I 623 W/m 17,0 C 27,4 C 8,0 km/h (2 Bft) 100,00 %
01.07.2016 16:44 27,4 C 55 % 1014,5 hPa 0,0 l/m 5,5 km/h (1 Bft) O-NO 65 2 min 0,000 mm 3,0 UV-I 619 W/m 17,5 C 27,4 C 12,9 km/h (3 Bft) 97,87 %
01.07.2016 16:46 27,6 C 52 % 1014,5 hPa 0,0 l/m 6,6 km/h (2 Bft) O 100 2 min 0,000 mm 2,9 UV-I 612 W/m 16,8 C 27,6 C 12,9 km/h (3 Bft) 98,00 %
01.07.2016 16:48 27,7 C 50 % 1014,5 hPa 0,0 l/m 8,0 km/h (2 Bft) O-NO 67 2 min 0,000 mm 2,9 UV-I 499 W/m 16,3 C 27,4 C 14,5 km/h (3 Bft) 96,00 %
01.07.2016 16:50 27,7 C 52 % 1014,6 hPa 0,0 l/m 5,4 km/h (1 Bft) O 81 2 min 0,000 mm 2,8 UV-I 455 W/m 16,9 C 27,7 C 9,7 km/h (2 Bft) 100,00 %
01.07.2016 16:52 27,7 C 53 % 1014,5 hPa 0,0 l/m 6,5 km/h (2 Bft) NO 50 2 min 0,000 mm 2,8 UV-I 588 W/m 17,2 C 27,7 C 9,7 km/h (2 Bft) 98,00 %
01.07.2016 16:54 27,6 C 56 % 1014,5 hPa 0,0 l/m 5,4 km/h (1 Bft) N-NO 28 2 min 0,000 mm 2,7 UV-I 585 W/m 18,0 C 27,6 C 8,0 km/h (2 Bft) 100,00 %
01.07.2016 16:56 27,6 C 57 % 1014,4 hPa 0,0 l/m 6,0 km/h (2 Bft) O 92 2 min 0,000 mm 2,7 UV-I 592 W/m 18,3 C 27,6 C 12,9 km/h (3 Bft) 100,00 %
01.07.2016 16:58 27,7 C 51 % 1014,4 hPa 0,0 l/m 7,3 km/h (2 Bft) O 86 2 min 0,000 mm 2,6 UV-I 589 W/m 16,6 C 27,5 C 14,5 km/h (3 Bft) 100,00 %
01.07.2016 17:00 27,7 C 52 % 1014,5 hPa 0,0 l/m 5,8 km/h (2 Bft) NW 310 2 min 0,457 mm 2,6 UV-I 583 W/m 16,9 C 27,7 C 14,5 km/h (3 Bft) 97,87 %
01.07.2016 17:02 27,7 C 54 % 1014,4 hPa 0,0 l/m 4,9 km/h (1 Bft) O-NO 62 2 min 0,000 mm 2,5 UV-I 581 W/m 17,5 C 27,7 C 12,9 km/h (3 Bft) 97,87 %
01.07.2016 17:04 27,8 C 48 % 1014,4 hPa 0,0 l/m 4,7 km/h (1 Bft) N-NO 17 2 min 0,000 mm 2,5 UV-I 573 W/m 15,8 C 27,8 C 8,0 km/h (2 Bft) 98,11 %
01.07.2016 17:06 27,9 C 51 % 1014,4 hPa 0,0 l/m 8,0 km/h (2 Bft) N-NO 33 2 min 0,000 mm 2,5 UV-I 575 W/m 16,8 C 27,6 C 14,5 km/h (3 Bft) 97,14 %
01.07.2016 17:08 27,8 C 53 % 1014,4 hPa 0,0 l/m 5,6 km/h (1 Bft) N 9 2 min 0,000 mm 2,4 UV-I 571 W/m 17,3 C 27,8 C 11,3 km/h (2 Bft) 100,00 %
01.07.2016 17:10 27,6 C 54 % 1014,4 hPa 0,0 l/m 4,9 km/h (1 Bft) N-NO 20 2 min 0,000 mm 2,4 UV-I 562 W/m 17,4 C 27,6 C 9,7 km/h (2 Bft) 100,00 %
01.07.2016 17:12 27,5 C 49 % 1014,4 hPa 0,0 l/m 1,7 km/h (1 Bft) N 9 2 min 0,000 mm 2,3 UV-I 549 W/m 15,8 C 27,5 C 3,2 km/h (1 Bft) 98,00 %
01.07.2016 17:14 27,4 C 55 % 1014,4 hPa 0,0 l/m 1,9 km/h (1 Bft) NO 44 2 min 0,000 mm 2,3 UV-I 543 W/m 17,5 C 27,4 C 11,3 km/h (2 Bft) 97,87 %
01.07.2016 17:16 27,6 C 54 % 1014,4 hPa 0,0 l/m 6,2 km/h (2 Bft) N-NO 32 2 min 0,000 mm 2,2 UV-I 538 W/m 17,4 C 27,6 C 11,3 km/h (2 Bft) 100,00 %
01.07.2016 17:18 27,6 C 55 % 1014,4 hPa 0,0 l/m 3,5 km/h (1 Bft) N 355 2 min 0,000 mm 2,2 UV-I 495 W/m 17,7 C 27,6 C 6,4 km/h (2 Bft) 100,00 %
01.07.2016 17:20 27,5 C 50 % 1014,3 hPa 0,0 l/m 5,2 km/h (1 Bft) N-NO 32 2 min 0,000 mm 2,1 UV-I 524 W/m 16,1 C 27,5 C 9,7 km/h (2 Bft) 100,00 %
01.07.2016 17:22 27,6 C 52 % 1014,3 hPa 0,0 l/m 2,0 km/h (1 Bft) N 355 2 min 0,000 mm 2,1 UV-I 514 W/m 16,8 C 27,6 C 3,2 km/h (1 Bft) 100,00 %
01.07.2016 17:24 27,4 C 51 % 1014,3 hPa 0,0 l/m 2,3 km/h (1 Bft) N 5 2 min 0,000 mm 2,0 UV-I 507 W/m 16,3 C 27,4 C 3,2 km/h (1 Bft) 97,92 %
01.07.2016 17:26 27,4 C 49 % 1014,3 hPa 0,0 l/m 1,4 km/h (1 Bft) N 5 2 min 0,000 mm 2,0 UV-I 504 W/m 15,7 C 27,4 C 3,2 km/h (1 Bft) 100,00 %
01.07.2016 17:28 27,6 C 50 % 1014,3 hPa 0,0 l/m 1,2 km/h (1 Bft) N-NW 348 2 min 0,000 mm 2,0 UV-I 506 W/m 16,2 C 27,6 C 3,2 km/h (1 Bft) 97,87 %
01.07.2016 17:30 27,6 C 51 % 1014,2 hPa 0,0 l/m 2,6 km/h (1 Bft) NO 37 2 min 0,000 mm 1,9 UV-I 505 W/m 16,5 C 27,6 C 8,0 km/h (2 Bft) 100,00 %
01.07.2016 17:32 27,6 C 55 % 1014,2 hPa 0,0 l/m 3,1 km/h (1 Bft) N-NO 17 2 min 0,000 mm 1,9 UV-I 500 W/m 17,7 C 27,6 C 6,4 km/h (2 Bft) 100,00 %
01.07.2016 17:34 27,4 C 53 % 1014,2 hPa 0,0 l/m 3,1 km/h (1 Bft) S-SO 164 2 min 0,000 mm 1,8 UV-I 493 W/m 17,0 C 27,4 C 4,8 km/h (1 Bft) 97,87 %
01.07.2016 17:36 27,2 C 54 % 1014,2 hPa 0,0 l/m 2,4 km/h (1 Bft) N-NO 16 2 min 0,000 mm 1,8 UV-I 485 W/m 17,1 C 27,2 C 6,4 km/h (2 Bft) 100,00 %
01.07.2016 17:38 27,2 C 53 % 1014,2 hPa 0,0 l/m 1,7 km/h (1 Bft) NO 44 2 min 0,000 mm 1,7 UV-I 474 W/m 16,8 C 27,2 C 4,8 km/h (1 Bft) 100,00 %
01.07.2016 17:40 27,2 C 54 % 1014,1 hPa 0,0 l/m 4,3 km/h (1 Bft) N-NO 21 2 min 0,000 mm 1,7 UV-I 463 W/m 17,1 C 27,2 C 11,3 km/h (2 Bft) 100,00 %
01.07.2016 17:42 27,1 C 56 % 1014,1 hPa 0,0 l/m 2,4 km/h (1 Bft) N 11 2 min 0,000 mm 1,6 UV-I 454 W/m 17,5 C 27,1 C 4,8 km/h (1 Bft) 100,00 %
01.07.2016 17:44 27,0 C 54 % 1014,2 hPa 0,0 l/m 2,8 km/h (1 Bft) N-NW 332 2 min 0,000 mm 1,6 UV-I 450 W/m 16,9 C 27,0 C 4,8 km/h (1 Bft) 100,00 %
01.07.2016 17:46 27,1 C 52 % 1014,1 hPa 0,0 l/m 3,2 km/h (1 Bft) W-NW 300 2 min 0,000 mm 1,6 UV-I 447 W/m 16,4 C 27,1 C 6,4 km/h (2 Bft) 100,00 %
01.07.2016 17:48 27,2 C 50 % 1014,1 hPa 0,0 l/m 3,3 km/h (1 Bft) NW 315 2 min 0,000 mm 1,6 UV-I 443 W/m 15,9 C 27,2 C 4,8 km/h (1 Bft) 100,00 %
01.07.2016 17:50 27,3 C 54 % 1014,1 hPa 0,0 l/m 3,7 km/h (1 Bft) W-NW 300 2 min 0,000 mm 1,5 UV-I 438 W/m 17,2 C 27,3 C 9,7 km/h (2 Bft) 97,87 %
01.07.2016 17:52 27,3 C 52 % 1014,1 hPa 0,0 l/m 5,0 km/h (1 Bft) NO 48 2 min 0,000 mm 1,5 UV-I 433 W/m 16,6 C 27,3 C 9,7 km/h (2 Bft) 97,87 %
01.07.2016 17:54 27,3 C 55 % 1014,1 hPa 0,0 l/m 5,6 km/h (1 Bft) N-NO 32 2 min 0,000 mm 1,4 UV-I 429 W/m 17,4 C 27,3 C 9,7 km/h (2 Bft) 100,00 %
01.07.2016 17:56 27,2 C 54 % 1014,1 hPa 0,0 l/m 3,3 km/h (1 Bft) N-NO 16 2 min 0,000 mm 1,4 UV-I 423 W/m 17,1 C 27,2 C 6,4 km/h (2 Bft) 97,92 %
01.07.2016 17:58 27,2 C 55 % 1014,0 hPa 0,0 l/m 2,9 km/h (1 Bft) NO 36 2 min 0,000 mm 1,4 UV-I 413 W/m 17,4 C 27,2 C 4,8 km/h (1 Bft) 95,74 %
01.07.2016 18:00 27,3 C 56 % 1014,1 hPa 0,0 l/m 3,5 km/h (1 Bft) O 83 2 min 0,356 mm 1,3 UV-I 404 W/m 17,7 C 27,3 C 6,4 km/h (2 Bft) 93,62 %
01.07.2016 18:02 27,3 C 55 % 1014,1 hPa 0,0 l/m 5,6 km/h (1 Bft) NO 42 2 min 0,000 mm 1,2 UV-I 394 W/m 17,4 C 27,3 C 9,7 km/h (2 Bft) 97,56 %
01.07.2016 18:04 27,4 C 50 % 1014,1 hPa 0,0 l/m 1,6 km/h (1 Bft) NW 320 2 min 0,000 mm 1,2 UV-I 381 W/m 16,0 C 27,4 C 3,2 km/h (1 Bft) 95,74 %
01.07.2016 18:06 27,2 C 55 % 1014,0 hPa 0,0 l/m 4,3 km/h (1 Bft) N-NO 33 2 min 0,000 mm 1,2 UV-I 368 W/m 17,4 C 27,2 C 12,9 km/h (3 Bft) 95,92 %
01.07.2016 18:08 27,2 C 57 % 1014,0 hPa 0,0 l/m 6,7 km/h (2 Bft) N-NO 19 2 min 0,000 mm 1,1 UV-I 368 W/m 17,9 C 27,1 C 12,9 km/h (3 Bft) 98,11 %
01.07.2016 18:10 27,0 C 57 % 1014,0 hPa 0,0 l/m 3,8 km/h (1 Bft) N-NO 15 2 min 0,000 mm 1,1 UV-I 373 W/m 17,7 C 27,0 C 8,0 km/h (2 Bft) 95,74 %
01.07.2016 18:12 26,8 C 55 % 1014,0 hPa 0,0 l/m 2,6 km/h (1 Bft) N 11 2 min 0,000 mm 1,1 UV-I 373 W/m 17,0 C 26,8 C 8,0 km/h (2 Bft) 95,74 %
01.07.2016 18:14 26,7 C 59 % 1013,9 hPa 0,0 l/m 1,7 km/h (1 Bft) N 355 2 min 0,000 mm 1,1 UV-I 367 W/m 18,0 C 26,7 C 3,2 km/h (1 Bft) 97,37 %
01.07.2016 18:16 26,7 C 55 % 1013,9 hPa 0,0 l/m 1,1 km/h (1 Bft) N 5 2 min 0,000 mm 1,0 UV-I 360 W/m 16,9 C 26,7 C 4,8 km/h (1 Bft) 95,74 %
01.07.2016 18:18 26,8 C 56 % 1014,0 hPa 0,0 l/m 5,2 km/h (1 Bft) N-NO 14 2 min 0,000 mm 1,0 UV-I 354 W/m 17,3 C 26,8 C 8,0 km/h (2 Bft) 95,74 %
01.07.2016 18:20 26,8 C 57 % 1013,9 hPa 0,0 l/m 6,8 km/h (2 Bft) NO 43 2 min 0,000 mm 1,0 UV-I 346 W/m 17,6 C 26,7 C 11,3 km/h (2 Bft) 95,74 %
01.07.2016 18:22 26,8 C 55 % 1013,9 hPa 0,0 l/m 8,3 km/h (2 Bft) NO 44 2 min 0,000 mm 0,9 UV-I 337 W/m 17,0 C 26,4 C 11,3 km/h (2 Bft) 95,83 %
01.07.2016 18:24 27,0 C 53 % 1013,9 hPa 0,0 l/m 6,0 km/h (2 Bft) N-NO 18 2 min 0,000 mm 0,9 UV-I 331 W/m 16,6 C 27,0 C 8,0 km/h (2 Bft) 97,87 %
01.07.2016 18:26 26,9 C 57 % 1014,0 hPa 0,0 l/m 7,3 km/h (2 Bft) NO 46 2 min 0,000 mm 0,9 UV-I 325 W/m 17,6 C 26,7 C 11,3 km/h (2 Bft) 97,87 %
01.07.2016 18:28 26,9 C 53 % 1013,9 hPa 0,0 l/m 6,6 km/h (2 Bft) NO 56 2 min 0,000 mm 0,9 UV-I 318 W/m 16,5 C 26,9 C 12,9 km/h (3 Bft) 97,87 %
01.07.2016 18:30 27,2 C 51 % 1013,9 hPa 0,0 l/m 8,3 km/h (2 Bft) O-NO 59 2 min 0,000 mm 0,8 UV-I 311 W/m 16,2 C 26,9 C 12,9 km/h (3 Bft) 100,00 %
01.07.2016 18:32 27,3 C 53 % 1014,0 hPa 0,0 l/m 7,9 km/h (2 Bft) N-NO 30 2 min 0,000 mm 0,8 UV-I 306 W/m 16,9 C 27,0 C 11,3 km/h (2 Bft) 100,00 %
01.07.2016 18:34 27,1 C 55 % 1014,0 hPa 0,0 l/m 7,9 km/h (2 Bft) N-NO 26 2 min 0,000 mm 0,8 UV-I 303 W/m 17,3 C 26,8 C 14,5 km/h (3 Bft) 100,00 %
01.07.2016 18:36 26,8 C 54 % 1014,0 hPa 0,0 l/m 6,9 km/h (2 Bft) N-NO 33 2 min 0,000 mm 0,8 UV-I 298 W/m 16,7 C 26,7 C 11,3 km/h (2 Bft) 97,87 %
01.07.2016 18:38 26,8 C 56 % 1014,0 hPa 0,0 l/m 6,2 km/h (2 Bft) N-NO 28 2 min 0,000 mm 0,8 UV-I 293 W/m 17,3 C 26,8 C 9,7 km/h (2 Bft) 97,92 %
01.07.2016 18:40 26,8 C 57 % 1014,0 hPa 0,0 l/m 6,0 km/h (2 Bft) N-NO 14 2 min 0,000 mm 0,7 UV-I 289 W/m 17,6 C 26,8 C 11,3 km/h (2 Bft) 100,00 %
01.07.2016 18:42 26,7 C 56 % 1014,0 hPa 0,0 l/m 5,6 km/h (1 Bft) N 9 2 min 0,000 mm 0,7 UV-I 287 W/m 17,2 C 26,7 C 12,9 km/h (3 Bft) 100,00 %
01.07.2016 18:44 26,6 C 57 % 1014,0 hPa 0,0 l/m 3,6 km/h (1 Bft) N-NO 22 2 min 0,000 mm 0,7 UV-I 282 W/m 17,4 C 26,6 C 8,0 km/h (2 Bft) 97,37 %
01.07.2016 18:46 26,6 C 58 % 1014,0 hPa 0,0 l/m 2,5 km/h (1 Bft) N-NO 19 2 min 0,000 mm 0,7 UV-I 278 W/m 17,6 C 26,6 C 6,4 km/h (2 Bft) 97,87 %
01.07.2016 18:48 26,6 C 59 % 1014,0 hPa 0,0 l/m 3,3 km/h (1 Bft) N-NO 21 2 min 0,000 mm 0,6 UV-I 271 W/m 17,9 C 26,6 C 6,4 km/h (2 Bft) 100,00 %
01.07.2016 18:50 26,6 C 57 % 1014,0 hPa 0,0 l/m 5,9 km/h (2 Bft) N-NO 12 2 min 0,000 mm 0,6 UV-I 263 W/m 17,4 C 26,6 C 11,3 km/h (2 Bft) 100,00 %
01.07.2016 18:52 26,7 C 58 % 1014,0 hPa 0,0 l/m 4,3 km/h (1 Bft) NO 36 2 min 0,000 mm 0,6 UV-I 253 W/m 17,7 C 26,7 C 6,4 km/h (2 Bft) 93,62 %
01.07.2016 18:54 26,6 C 57 % 1014,0 hPa 0,0 l/m 9,4 km/h (2 Bft) N-NO 26 2 min 0,000 mm 0,6 UV-I 249 W/m 17,4 C 26,0 C 14,5 km/h (3 Bft) 98,00 %
01.07.2016 18:56 26,4 C 58 % 1014,1 hPa 0,0 l/m 5,9 km/h (2 Bft) N-NO 18 2 min 0,000 mm 0,6 UV-I 246 W/m 17,5 C 26,4 C 12,9 km/h (3 Bft) 97,87 %
01.07.2016 18:58 26,3 C 59 % 1014,1 hPa 0,0 l/m 1,6 km/h (1 Bft) N 355 2 min 0,000 mm 0,5 UV-I 243 W/m 17,6 C 26,3 C 3,2 km/h (1 Bft) 100,00 %
01.07.2016 19:00 26,1 C 59 % 1014,1 hPa 0,0 l/m 3,6 km/h (1 Bft) N-NO 25 2 min 0,000 mm 0,5 UV-I 239 W/m 17,4 C 26,1 C 8,0 km/h (2 Bft) 100,00 %
01.07.2016 19:02 26,1 C 59 % 1014,1 hPa 0,0 l/m 4,1 km/h (1 Bft) NO 34 2 min 0,254 mm 0,5 UV-I 233 W/m 17,4 C 26,1 C 11,3 km/h (2 Bft) 100,00 %
01.07.2016 19:04 26,1 C 58 % 1014,1 hPa 0,0 l/m 3,6 km/h (1 Bft) N 11 2 min 0,000 mm 0,5 UV-I 225 W/m 17,2 C 26,1 C 11,3 km/h (2 Bft) 97,87 %
01.07.2016 19:06 25,9 C 60 % 1014,1 hPa 0,0 l/m 4,1 km/h (1 Bft) N-NO 31 2 min 0,000 mm 0,5 UV-I 216 W/m 17,5 C 25,9 C 11,3 km/h (2 Bft) 100,00 %
01.07.2016 19:08 25,9 C 59 % 1014,1 hPa 0,0 l/m 6,5 km/h (2 Bft) N-NO 31 2 min 0,000 mm 0,1 UV-I 210 W/m 17,3 C 25,9 C 9,7 km/h (2 Bft) 97,87 %
01.07.2016 19:10 25,9 C 59 % 1014,1 hPa 0,0 l/m 2,9 km/h (1 Bft) N-NO 26 2 min 0,000 mm 0,0 UV-I 203 W/m 17,3 C 25,9 C 9,7 km/h (2 Bft) 100,00 %
01.07.2016 19:12 25,9 C 60 % 1014,1 hPa 0,0 l/m 6,4 km/h (2 Bft) NO 42 2 min 0,000 mm 0,0 UV-I 198 W/m 17,5 C 25,9 C 11,3 km/h (2 Bft) 100,00 %
01.07.2016 19:14 25,8 C 61 % 1014,1 hPa 0,0 l/m 4,0 km/h (1 Bft) N 5 2 min 0,000 mm 0,0 UV-I 194 W/m 17,7 C 25,8 C 8,0 km/h (2 Bft) 100,00 %
01.07.2016 19:16 25,8 C 61 % 1014,1 hPa 0,0 l/m 5,9 km/h (2 Bft) N-NO 32 2 min 0,000 mm 0,0 UV-I 172 W/m 17,7 C 25,8 C 9,7 km/h (2 Bft) 97,87 %
01.07.2016 19:18 25,8 C 59 % 1014,1 hPa 0,0 l/m 6,5 km/h (2 Bft) N-NO 19 2 min 0,000 mm 0,0 UV-I 187 W/m 17,2 C 25,8 C 11,3 km/h (2 Bft) 100,00 %
01.07.2016 19:20 25,8 C 58 % 1014,0 hPa 0,0 l/m 7,1 km/h (2 Bft) NO 40 2 min 0,000 mm 0,0 UV-I 180 W/m 16,9 C 25,6 C 9,7 km/h (2 Bft) 100,00 %
01.07.2016 19:22 25,8 C 61 % 1014,1 hPa 0,0 l/m 4,3 km/h (1 Bft) NO 49 2 min 0,000 mm 0,0 UV-I 173 W/m 17,7 C 25,8 C 8,0 km/h (2 Bft) 100,00 %
01.07.2016 19:24 25,9 C 59 % 1014,1 hPa 0,0 l/m 6,0 km/h (2 Bft) NO 44 2 min 0,000 mm 0,0 UV-I 167 W/m 17,3 C 25,9 C 11,3 km/h (2 Bft) 100,00 %
01.07.2016 19:26 25,9 C 58 % 1014,0 hPa 0,0 l/m 6,5 km/h (2 Bft) NO 48 2 min 0,000 mm 0,0 UV-I 161 W/m 17,0 C 25,9 C 9,7 km/h (2 Bft) 100,00 %
01.07.2016 19:28 25,9 C 58 % 1014,0 hPa 0,0 l/m 7,1 km/h (2 Bft) N-NO 17 2 min 0,000 mm 0,0 UV-I 157 W/m 17,0 C 25,7 C 11,3 km/h (2 Bft) 100,00 %
01.07.2016 19:30 25,8 C 59 % 1014,0 hPa 0,0 l/m 4,2 km/h (1 Bft) N-NO 13 2 min 0,000 mm 0,0 UV-I 153 W/m 17,2 C 25,8 C 9,7 km/h (2 Bft) 98,00 %
01.07.2016 19:32 25,7 C 60 % 1014,0 hPa 0,0 l/m 5,7 km/h (1 Bft) N-NO 13 2 min 0,000 mm 0,0 UV-I 147 W/m 17,3 C 25,7 C 8,0 km/h (2 Bft) 95,74 %
01.07.2016 19:34 25,6 C 60 % 1014,0 hPa 0,0 l/m 2,2 km/h (1 Bft) N-NO 23 2 min 0,000 mm 0,0 UV-I 140 W/m 17,2 C 25,6 C 4,8 km/h (1 Bft) 100,00 %
01.07.2016 19:36 25,6 C 60 % 1013,9 hPa 0,0 l/m 3,4 km/h (1 Bft) N-NO 19 2 min 0,000 mm 0,0 UV-I 135 W/m 17,2 C 25,6 C 8,0 km/h (2 Bft) 100,00 %
01.07.2016 19:38 25,5 C 60 % 1013,9 hPa 0,0 l/m 5,8 km/h (2 Bft) N-NO 28 2 min 0,000 mm 0,0 UV-I 130 W/m 17,2 C 25,5 C 8,0 km/h (2 Bft) 97,87 %
01.07.2016 19:40 25,4 C 61 % 1014,0 hPa 0,0 l/m 4,0 km/h (1 Bft) N-NO 20 2 min 0,000 mm 0,0 UV-I 125 W/m 17,3 C 25,4 C 6,4 km/h (2 Bft) 97,96 %
01.07.2016 19:42 25,3 C 61 % 1013,9 hPa 0,0 l/m 4,0 km/h (1 Bft) N-NO 26 2 min 0,000 mm 0,0 UV-I 121 W/m 17,2 C 25,3 C 6,4 km/h (2 Bft) 100,00 %
01.07.2016 19:44 25,3 C 60 % 1014,0 hPa 0,0 l/m 6,0 km/h (2 Bft) N-NO 17 2 min 0,000 mm 0,0 UV-I 112 W/m 17,0 C 25,3 C 8,0 km/h (2 Bft) 100,00 %
01.07.2016 19:46 25,3 C 61 % 1014,0 hPa 0,0 l/m 4,5 km/h (1 Bft) N-NO 24 2 min 0,000 mm 0,0 UV-I 111 W/m 17,2 C 25,3 C 8,0 km/h (2 Bft) 97,87 %
01.07.2016 19:48 25,3 C 61 % 1014,0 hPa 0,0 l/m 4,9 km/h (1 Bft) N-NO 32 2 min 0,000 mm 0,0 UV-I 105 W/m 17,2 C 25,3 C 8,0 km/h (2 Bft) 100,00 %
01.07.2016 19:50 25,2 C 62 % 1014,0 hPa 0,0 l/m 4,1 km/h (1 Bft) N-NO 25 2 min 0,000 mm 0,0 UV-I 100 W/m 17,4 C 25,2 C 8,0 km/h (2 Bft) 95,92 %
01.07.2016 19:52 25,2 C 61 % 1014,0 hPa 0,0 l/m 4,4 km/h (1 Bft) N-NO 30 2 min 0,000 mm 0,0 UV-I 95 W/m 17,1 C 25,2 C 6,4 km/h (2 Bft) 95,83 %
01.07.2016 19:54 25,3 C 60 % 1014,0 hPa 0,0 l/m 4,2 km/h (1 Bft) N-NO 30 2 min 0,000 mm 0,0 UV-I 91 W/m 17,0 C 25,3 C 6,4 km/h (2 Bft) 98,00 %
01.07.2016 19:56 25,4 C 60 % 1014,0 hPa 0,0 l/m 3,0 km/h (1 Bft) N-NO 30 0 min 0,000 mm 0,0 UV-I 85 W/m 17,1 C 25,4 C 4,8 km/h (1 Bft) 97,87 %
01.07.2016 19:58 25,4 C 61 % 1014,0 hPa 0,0 l/m 1,9 km/h (1 Bft) N-NO 30 0 min 0,000 mm 0,0 UV-I 81 W/m 17,3 C 25,4 C 3,2 km/h (1 Bft) 98,08 %
01.07.2016 20:00 25,5 C 61 % 1014,0 hPa 0,0 l/m 1,9 km/h (1 Bft) N-NO 30 0 min 0,000 mm 0,0 UV-I 77 W/m 17,4 C 25,5 C 3,2 km/h (1 Bft) 97,92 %
01.07.2016 20:02 25,4 C 61 % 1014,0 hPa 0,0 l/m 2,5 km/h (1 Bft) N-NO 30 0 min 0,127 mm 0,0 UV-I 73 W/m 17,3 C 25,4 C 4,8 km/h (1 Bft) 97,37 %
01.07.2016 20:04 25,4 C 62 % 1014,0 hPa 0,0 l/m 1,9 km/h (1 Bft) N-NO 30 0 min 0,000 mm 0,0 UV-I 69 W/m 17,6 C 25,4 C 3,2 km/h (1 Bft) 97,87 %
01.07.2016 20:06 25,3 C 63 % 1014,0 hPa 0,0 l/m 2,5 km/h (1 Bft) N-NO 23 0 min 0,000 mm 0,0 UV-I 62 W/m 17,7 C 25,3 C 4,8 km/h (1 Bft) 95,74 %
01.07.2016 20:08 25,2 C 63 % 1014,0 hPa 0,0 l/m 3,8 km/h (1 Bft) NO 34 0 min 0,000 mm 0,0 UV-I 55 W/m 17,6 C 25,2 C 6,4 km/h (2 Bft) 97,87 %
01.07.2016 20:10 25,1 C 62 % 1014,0 hPa 0,0 l/m 3,4 km/h (1 Bft) NO 34 0 min 0,000 mm 0,0 UV-I 58 W/m 17,3 C 25,1 C 4,8 km/h (1 Bft) 95,74 %
01.07.2016 20:12 25,2 C 61 % 1014,0 hPa 0,0 l/m 3,2 km/h (1 Bft) NO 34 0 min 0,000 mm 0,0 UV-I 54 W/m 17,1 C 25,2 C 4,8 km/h (1 Bft) 95,74 %
01.07.2016 20:14 25,2 C 61 % 1014,0 hPa 0,0 l/m 1,8 km/h (1 Bft) NO 34 0 min 0,000 mm 0,0 UV-I 50 W/m 17,1 C 25,2 C 3,2 km/h (1 Bft) 95,74 %
01.07.2016 20:16 25,2 C 62 % 1014,0 hPa 0,0 l/m 2,1 km/h (1 Bft) NO 34 0 min 0,000 mm 0,0 UV-I 46 W/m 17,4 C 25,2 C 4,8 km/h (1 Bft) 97,87 %
01.07.2016 20:18 25,1 C 61 % 1014,0 hPa 0,0 l/m 2,0 km/h (1 Bft) NO 34 0 min 0,000 mm 0,0 UV-I 41 W/m 17,0 C 25,1 C 3,2 km/h (1 Bft) 96,23 %
01.07.2016 20:20 25,1 C 62 % 1014,0 hPa 0,0 l/m 2,1 km/h (1 Bft) NO 34 0 min 0,000 mm 0,0 UV-I 39 W/m 17,3 C 25,1 C 3,2 km/h (1 Bft) 100,00 %
01.07.2016 20:22 25,0 C 64 % 1014,0 hPa 0,0 l/m 2,5 km/h (1 Bft) NO 34 0 min 0,000 mm 0,0 UV-I 34 W/m 17,7 C 25,0 C 3,2 km/h (1 Bft) 95,74 %
01.07.2016 20:24 24,9 C 63 % 1014,0 hPa 0,0 l/m 2,5 km/h (1 Bft) NO 34 0 min 0,000 mm 0,0 UV-I 33 W/m 17,4 C 24,9 C 3,2 km/h (1 Bft) 100,00 %
01.07.2016 20:26 24,9 C 63 % 1014,0 hPa 0,0 l/m 2,5 km/h (1 Bft) NO 34 0 min 0,000 mm 0,0 UV-I 28 W/m 17,4 C 24,9 C 3,2 km/h (1 Bft) 97,37 %
01.07.2016 20:28 24,8 C 63 % 1014,0 hPa 0,0 l/m 2,3 km/h (1 Bft) NO 34 0 min 0,000 mm 0,0 UV-I 23 W/m 17,3 C 24,8 C 3,2 km/h (1 Bft) 100,00 %
01.07.2016 20:30 24,8 C 64 % 1014,1 hPa 0,0 l/m 2,4 km/h (1 Bft) NO 34 0 min 0,000 mm 0,0 UV-I 21 W/m 17,5 C 24,8 C 4,8 km/h (1 Bft) 100,00 %
01.07.2016 20:32 24,7 C 65 % 1014,1 hPa 0,0 l/m 1,3 km/h (1 Bft) NO 34 0 min 0,000 mm 0,0 UV-I 20 W/m 17,7 C 24,7 C 3,2 km/h (1 Bft) 97,92 %
01.07.2016 20:34 24,6 C 64 % 1014,1 hPa 0,0 l/m 1,6 km/h (1 Bft) NO 34 0 min 0,000 mm 0,0 UV-I 19 W/m 17,3 C 24,6 C 3,2 km/h (1 Bft) 100,00 %
01.07.2016 20:36 24,5 C 63 % 1014,1 hPa 0,0 l/m 0,7 km/h (0 Bft) NO 34 0 min 0,000 mm 0,0 UV-I 18 W/m 17,0 C 24,5 C 1,6 km/h (1 Bft) 100,00 %
01.07.2016 20:38 24,4 C 65 % 1014,1 hPa 0,0 l/m 2,3 km/h (1 Bft) NO 44 0 min 0,000 mm 0,0 UV-I 17 W/m 17,4 C 24,4 C 3,2 km/h (1 Bft) 100,00 %
01.07.2016 20:40 24,2 C 66 % 1014,1 hPa 0,0 l/m 2,7 km/h (1 Bft) NO 45 0 min 0,000 mm 0,0 UV-I 14 W/m 17,4 C 24,2 C 4,8 km/h (1 Bft) 95,74 %
01.07.2016 20:42 24,1 C 64 % 1014,1 hPa 0,0 l/m 3,4 km/h (1 Bft) NO 56 0 min 0,000 mm 0,0 UV-I 14 W/m 16,9 C 24,1 C 4,8 km/h (1 Bft) 100,00 %
01.07.2016 20:44 24,1 C 65 % 1014,0 hPa 0,0 l/m 4,1 km/h (1 Bft) O-NO 69 0 min 0,000 mm 0,0 UV-I 12 W/m 17,1 C 24,1 C 6,4 km/h (2 Bft) 100,00 %
01.07.2016 20:46 24,2 C 64 % 1014,0 hPa 0,0 l/m 3,1 km/h (1 Bft) O-NO 69 0 min 0,000 mm 0,0 UV-I 11 W/m 16,9 C 24,2 C 4,8 km/h (1 Bft) 100,00 %
01.07.2016 20:48 24,2 C 63 % 1014,0 hPa 0,0 l/m 2,7 km/h (1 Bft) O-NO 69 0 min 0,000 mm 0,0 UV-I 11 W/m 16,7 C 24,2 C 3,2 km/h (1 Bft) 97,87 %
01.07.2016 20:50 24,2 C 64 % 1014,0 hPa 0,0 l/m 2,6 km/h (1 Bft) O-NO 69 0 min 0,000 mm 0,0 UV-I 10 W/m 16,9 C 24,2 C 3,2 km/h (1 Bft) 100,00 %
01.07.2016 20:52 24,1 C 64 % 1014,0 hPa 0,0 l/m 2,1 km/h (1 Bft) O-NO 69 0 min 0,000 mm 0,0 UV-I 9 W/m 16,9 C 24,1 C 3,2 km/h (1 Bft) 97,87 %
01.07.2016 20:54 24,1 C 64 % 1014,0 hPa 0,0 l/m 2,2 km/h (1 Bft) O-NO 69 2 min 0,000 mm 0,0 UV-I 9 W/m 16,9 C 24,1 C 3,2 km/h (1 Bft) 97,87 %
01.07.2016 20:56 24,1 C 63 % 1014,1 hPa 0,0 l/m 2,5 km/h (1 Bft) O-NO 69 0 min 0,000 mm 0,0 UV-I 7 W/m 16,6 C 24,1 C 3,2 km/h (1 Bft) 100,00 %
01.07.2016 20:58 23,9 C 65 % 1014,1 hPa 0,0 l/m 2,7 km/h (1 Bft) O-NO 69 0 min 0,000 mm 0,0 UV-I 7 W/m 16,9 C 23,9 C 4,8 km/h (1 Bft) 100,00 %
01.07.2016 21:00 23,7 C 66 % 1014,0 hPa 0,0 l/m 2,2 km/h (1 Bft) O-NO 69 0 min 0,000 mm 0,0 UV-I 7 W/m 17,0 C 23,7 C 4,8 km/h (1 Bft) 97,87 %
01.07.2016 21:02 23,6 C 65 % 1014,0 hPa 0,0 l/m 1,8 km/h (1 Bft) O-NO 69 0 min 0,051 mm 0,0 UV-I 7 W/m 16,6 C 23,6 C 3,2 km/h (1 Bft) 97,87 %
01.07.2016 21:04 23,5 C 66 % 1014,0 hPa 0,0 l/m 0,8 km/h (0 Bft) O-NO 69 0 min 0,000 mm 0,0 UV-I 5 W/m 16,8 C 23,5 C 1,6 km/h (1 Bft) 97,87 %
01.07.2016 21:06 23,5 C 67 % 1014,0 hPa 0,0 l/m 1,0 km/h (0 Bft) O-NO 69 0 min 0,000 mm 0,0 UV-I 5 W/m 17,0 C 23,5 C 1,6 km/h (1 Bft) 97,87 %
01.07.2016 21:08 23,5 C 68 % 1014,0 hPa 0,0 l/m 0,5 km/h (0 Bft) O-NO 69 0 min 0,000 mm 0,0 UV-I 5 W/m 17,2 C 23,5 C 1,6 km/h (1 Bft) 100,00 %
01.07.2016 21:10 23,4 C 66 % 1014,0 hPa 0,0 l/m 0,0 km/h (0 Bft) O-NO 69 0 min 0,000 mm 0,0 UV-I 1 W/m 16,7 C 23,4 C 0,0 km/h (0 Bft) 100,00 %
01.07.2016 21:12 23,3 C 66 % 1014,0 hPa 0,0 l/m 0,0 km/h (0 Bft) O-NO 69 0 min 0,000 mm 0,0 UV-I 0 W/m 16,6 C 23,3 C 0,0 km/h (0 Bft) 100,00 %
01.07.2016 21:14 23,2 C 66 % 1014,0 hPa 0,0 l/m 0,3 km/h (0 Bft) O-NO 69 0 min 0,000 mm 0,0 UV-I 0 W/m 16,5 C 23,2 C 1,6 km/h (1 Bft) 97,92 %
01.07.2016 21:16 23,1 C 67 % 1014,0 hPa 0,0 l/m 1,2 km/h (1 Bft) O-NO 69 0 min 0,000 mm 0,0 UV-I 0 W/m 16,6 C 23,1 C 1,6 km/h (1 Bft) 100,00 %
01.07.2016 21:18 23,0 C 67 % 1014,1 hPa 0,0 l/m 0,6 km/h (0 Bft) O-NO 69 0 min 0,000 mm 0,0 UV-I 0 W/m 16,5 C 23,0 C 1,6 km/h (1 Bft) 97,87 %
01.07.2016 21:20 23,0 C 68 % 1014,0 hPa 0,0 l/m 0,1 km/h (0 Bft) O-NO 69 0 min 0,000 mm 0,0 UV-I 0 W/m 16,8 C 23,0 C 1,6 km/h (1 Bft) 100,00 %
01.07.2016 21:22 23,0 C 69 % 1014,1 hPa 0,0 l/m 1,1 km/h (1 Bft) O-NO 69 0 min 0,000 mm 0,0 UV-I 0 W/m 17,0 C 23,0 C 1,6 km/h (1 Bft) 100,00 %
01.07.2016 21:24 23,0 C 68 % 1014,1 hPa 0,0 l/m 1,1 km/h (1 Bft) O-NO 69 0 min 0,000 mm 0,0 UV-I 0 W/m 16,8 C 23,0 C 1,6 km/h (1 Bft) 100,00 %
01.07.2016 21:26 22,9 C 71 % 1014,1 hPa 0,0 l/m 0,5 km/h (0 Bft) O-NO 69 0 min 0,000 mm 0,0 UV-I 0 W/m 17,4 C 22,9 C 1,6 km/h (1 Bft) 100,00 %
01.07.2016 21:28 22,8 C 71 % 1014,1 hPa 0,0 l/m 0,9 km/h (0 Bft) O-NO 69 0 min 0,000 mm 0,0 UV-I 0 W/m 17,3 C 22,8 C 1,6 km/h (1 Bft) 100,00 %
01.07.2016 21:30 22,7 C 72 % 1014,1 hPa 0,0 l/m 0,8 km/h (0 Bft) O-NO 69 0 min 0,000 mm 0,0 UV-I 0 W/m 17,4 C 22,7 C 1,6 km/h (1 Bft) 100,00 %
01.07.2016 21:32 22,6 C 72 % 1014,1 hPa 0,0 l/m 1,3 km/h (1 Bft) O-NO 68 0 min 0,000 mm 0,0 UV-I 0 W/m 17,3 C 22,6 C 1,6 km/h (1 Bft) 100,00 %
01.07.2016 21:34 22,6 C 70 % 1014,1 hPa 0,0 l/m 1,3 km/h (1 Bft) O-NO 69 0 min 0,000 mm 0,0 UV-I 0 W/m 16,8 C 22,6 C 1,6 km/h (1 Bft) 97,87 %
01.07.2016 21:36 22,6 C 69 % 1014,1 hPa 0,0 l/m 0,9 km/h (0 Bft) O-NO 69 0 min 0,000 mm 0,0 UV-I 0 W/m 16,6 C 22,6 C 1,6 km/h (1 Bft) 97,87 %
01.07.2016 21:38 22,5 C 68 % 1014,1 hPa 0,0 l/m 0,3 km/h (0 Bft) O-NO 69 0 min 0,000 mm 0,0 UV-I 0 W/m 16,3 C 22,5 C 1,6 km/h (1 Bft) 100,00 %
01.07.2016 21:40 22,5 C 68 % 1014,1 hPa 0,0 l/m 0,6 km/h (0 Bft) O-NO 69 0 min 0,000 mm 0,0 UV-I 0 W/m 16,3 C 22,5 C 1,6 km/h (1 Bft) 95,74 %
01.07.2016 21:42 22,4 C 69 % 1014,1 hPa 0,0 l/m 0,3 km/h (0 Bft) O-NO 69 0 min 0,000 mm 0,0 UV-I 0 W/m 16,4 C 22,4 C 1,6 km/h (1 Bft) 98,04 %
01.07.2016 21:44 22,5 C 69 % 1014,1 hPa 0,0 l/m 0,2 km/h (0 Bft) O-NO 69 0 min 0,000 mm 0,0 UV-I 0 W/m 16,5 C 22,5 C 1,6 km/h (1 Bft) 97,87 %
01.07.2016 21:46 22,5 C 72 % 1014,2 hPa 0,0 l/m 0,0 km/h (0 Bft) O-NO 69 0 min 0,000 mm 0,0 UV-I 0 W/m 17,2 C 22,5 C 0,0 km/h (0 Bft) 95,74 %
01.07.2016 21:48 22,4 C 74 % 1014,2 hPa 0,0 l/m 0,0 km/h (0 Bft) O-NO 69 0 min 0,000 mm 0,0 UV-I 0 W/m 17,5 C 22,4 C 0,0 km/h (0 Bft) 95,74 %
01.07.2016 21:50 22,3 C 73 % 1014,2 hPa 0,0 l/m 0,0 km/h (0 Bft) O-NO 69 0 min 0,000 mm 0,0 UV-I 0 W/m 17,2 C 22,3 C 0,0 km/h (0 Bft) 93,62 %
01.07.2016 21:52 22,1 C 73 % 1014,2 hPa 0,0 l/m 0,0 km/h (0 Bft) O-NO 69 0 min 0,000 mm 0,0 UV-I 0 W/m 17,0 C 22,1 C 1,6 km/h (1 Bft) 96,08 %
01.07.2016 21:54 21,9 C 74 % 1014,3 hPa 0,0 l/m 0,8 km/h (0 Bft) O-NO 69 0 min 0,000 mm 0,0 UV-I 0 W/m 17,0 C 21,9 C 1,6 km/h (1 Bft) 97,87 %
01.07.2016 21:56 21,8 C 74 % 1014,3 hPa 0,0 l/m 1,3 km/h (1 Bft) O-NO 69 0 min 0,000 mm 0,0 UV-I 0 W/m 17,0 C 21,8 C 3,2 km/h (1 Bft) 97,92 %
01.07.2016 21:58 21,8 C 74 % 1014,3 hPa 0,0 l/m 1,9 km/h (1 Bft) O-NO 69 0 min 0,000 mm 0,0 UV-I 0 W/m 17,0 C 21,8 C 3,2 km/h (1 Bft) 95,74 %
01.07.2016 22:00 21,8 C 74 % 1014,3 hPa 0,0 l/m 2,9 km/h (1 Bft) O-NO 69 0 min 0,000 mm 0,0 UV-I 0 W/m 17,0 C 21,8 C 4,8 km/h (1 Bft) 97,14 %
01.07.2016 22:02 21,8 C 73 % 1014,3 hPa 0,0 l/m 4,0 km/h (1 Bft) O 90 0 min 0,000 mm 0,0 UV-I 0 W/m 16,7 C 21,8 C 6,4 km/h (2 Bft) 97,96 %
01.07.2016 22:04 21,9 C 72 % 1014,3 hPa 0,0 l/m 4,2 km/h (1 Bft) O-NO 70 0 min 0,000 mm 0,0 UV-I 0 W/m 16,6 C 21,9 C 6,4 km/h (2 Bft) 95,74 %
01.07.2016 22:06 22,1 C 72 % 1014,2 hPa 0,0 l/m 3,8 km/h (1 Bft) O-NO 70 0 min 0,000 mm 0,0 UV-I 0 W/m 16,8 C 22,1 C 4,8 km/h (1 Bft) 95,74 %
01.07.2016 22:08 22,2 C 71 % 1014,3 hPa 0,0 l/m 3,5 km/h (1 Bft) O-NO 70 0 min 0,000 mm 0,0 UV-I 0 W/m 16,7 C 22,2 C 6,4 km/h (2 Bft) 93,62 %
01.07.2016 22:10 22,3 C 70 % 1014,2 hPa 0,0 l/m 3,9 km/h (1 Bft) O 82 0 min 0,000 mm 0,0 UV-I 0 W/m 16,6 C 22,3 C 6,4 km/h (2 Bft) 97,87 %
01.07.2016 22:12 22,4 C 70 % 1014,3 hPa 0,0 l/m 4,1 km/h (1 Bft) O 80 0 min 0,000 mm 0,0 UV-I 0 W/m 16,7 C 22,4 C 6,4 km/h (2 Bft) 98,11 %
01.07.2016 22:14 22,5 C 71 % 1014,3 hPa 0,0 l/m 2,8 km/h (1 Bft) O 80 0 min 0,000 mm 0,0 UV-I 0 W/m 17,0 C 22,5 C 4,8 km/h (1 Bft) 97,87 %
01.07.2016 22:16 22,4 C 70 % 1014,3 hPa 0,0 l/m 4,1 km/h (1 Bft) O 83 0 min 0,000 mm 0,0 UV-I 0 W/m 16,7 C 22,4 C 8,0 km/h (2 Bft) 97,87 %
01.07.2016 22:18 22,4 C 70 % 1014,3 hPa 0,0 l/m 4,4 km/h (1 Bft) O 80 0 min 0,000 mm 0,0 UV-I 0 W/m 16,7 C 22,4 C 6,4 km/h (2 Bft) 100,00 %
01.07.2016 22:20 22,4 C 69 % 1014,3 hPa 0,0 l/m 4,9 km/h (1 Bft) O-NO 63 0 min 0,000 mm 0,0 UV-I 0 W/m 16,4 C 22,4 C 8,0 km/h (2 Bft) 97,87 %
01.07.2016 22:22 22,4 C 69 % 1014,3 hPa 0,0 l/m 4,8 km/h (1 Bft) O 81 0 min 0,000 mm 0,0 UV-I 0 W/m 16,4 C 22,4 C 8,0 km/h (2 Bft) 97,87 %
01.07.2016 22:24 22,6 C 68 % 1014,3 hPa 0,0 l/m 4,3 km/h (1 Bft) O-NO 78 0 min 0,000 mm 0,0 UV-I 0 W/m 16,4 C 22,6 C 8,0 km/h (2 Bft) 100,00 %
01.07.2016 22:26 22,6 C 68 % 1014,3 hPa 0,0 l/m 4,3 km/h (1 Bft) O-NO 68 0 min 0,000 mm 0,0 UV-I 0 W/m 16,4 C 22,6 C 8,0 km/h (2 Bft) 100,00 %
01.07.2016 22:28 22,6 C 69 % 1014,3 hPa 0,0 l/m 3,7 km/h (1 Bft) O 84 0 min 0,000 mm 0,0 UV-I 0 W/m 16,6 C 22,6 C 6,4 km/h (2 Bft) 97,87 %
01.07.2016 22:30 22,4 C 70 % 1014,3 hPa 0,0 l/m 3,0 km/h (1 Bft) O 84 0 min 0,000 mm 0,0 UV-I 0 W/m 16,7 C 22,4 C 4,8 km/h (1 Bft) 100,00 %
01.07.2016 22:32 22,3 C 70 % 1014,3 hPa 0,0 l/m 3,8 km/h (1 Bft) O 84 0 min 0,000 mm 0,0 UV-I 0 W/m 16,6 C 22,3 C 4,8 km/h (1 Bft) 97,87 %
01.07.2016 22:34 22,2 C 70 % 1014,3 hPa 0,0 l/m 2,8 km/h (1 Bft) O 84 0 min 0,000 mm 0,0 UV-I 0 W/m 16,5 C 22,2 C 4,8 km/h (1 Bft) 100,00 %
01.07.2016 22:36 22,1 C 70 % 1014,3 hPa 0,0 l/m 2,7 km/h (1 Bft) O-SO 105 0 min 0,000 mm 0,0 UV-I 0 W/m 16,4 C 22,1 C 4,8 km/h (1 Bft) 100,00 %
01.07.2016 22:38 22,1 C 69 % 1014,3 hPa 0,0 l/m 4,5 km/h (1 Bft) O 84 0 min 0,000 mm 0,0 UV-I 0 W/m 16,1 C 22,1 C 6,4 km/h (2 Bft) 100,00 %
01.07.2016 22:40 22,1 C 69 % 1014,3 hPa 0,0 l/m 3,8 km/h (1 Bft) O-NO 60 0 min 0,000 mm 0,0 UV-I 0 W/m 16,1 C 22,1 C 8,0 km/h (2 Bft) 97,87 %
01.07.2016 22:42 22,2 C 68 % 1014,3 hPa 0,0 l/m 4,1 km/h (1 Bft) O-NO 61 0 min 0,000 mm 0,0 UV-I 0 W/m 16,0 C 22,2 C 6,4 km/h (2 Bft) 100,00 %
01.07.2016 22:44 22,3 C 69 % 1014,3 hPa 0,0 l/m 4,0 km/h (1 Bft) O-NO 68 0 min 0,000 mm 0,0 UV-I 0 W/m 16,3 C 22,3 C 6,4 km/h (2 Bft) 97,87 %
01.07.2016 22:46 22,3 C 70 % 1014,3 hPa 0,0 l/m 3,8 km/h (1 Bft) O-NO 76 0 min 0,000 mm 0,0 UV-I 0 W/m 16,6 C 22,3 C 4,8 km/h (1 Bft) 100,00 %
01.07.2016 22:48 22,2 C 71 % 1014,2 hPa 0,0 l/m 3,7 km/h (1 Bft) O-NO 76 0 min 0,000 mm 0,0 UV-I 0 W/m 16,7 C 22,2 C 6,4 km/h (2 Bft) 97,87 %
01.07.2016 22:50 22,0 C 72 % 1014,2 hPa 0,0 l/m 2,9 km/h (1 Bft) O-NO 76 0 min 0,000 mm 0,0 UV-I 0 W/m 16,7 C 22,0 C 4,8 km/h (1 Bft) 100,00 %
01.07.2016 22:52 21,8 C 72 % 1014,2 hPa 0,0 l/m 3,3 km/h (1 Bft) O-SO 107 0 min 0,000 mm 0,0 UV-I 0 W/m 16,5 C 21,8 C 4,8 km/h (1 Bft) 100,00 %
01.07.2016 22:54 21,6 C 73 % 1014,2 hPa 0,0 l/m 3,2 km/h (1 Bft) O 93 0 min 0,000 mm 0,0 UV-I 0 W/m 16,5 C 21,6 C 6,4 km/h (2 Bft) 100,00 %
01.07.2016 22:56 21,4 C 74 % 1014,2 hPa 0,0 l/m 3,8 km/h (1 Bft) O 88 0 min 0,000 mm 0,0 UV-I 0 W/m 16,6 C 21,4 C 6,4 km/h (2 Bft) 100,00 %
01.07.2016 22:58 21,2 C 74 % 1014,2 hPa 0,0 l/m 4,3 km/h (1 Bft) O 96 0 min 0,000 mm 0,0 UV-I 0 W/m 16,4 C 21,2 C 6,4 km/h (2 Bft) 100,00 %
01.07.2016 23:00 21,1 C 74 % 1014,1 hPa 0,0 l/m 4,6 km/h (1 Bft) O-SO 108 0 min 0,000 mm 0,0 UV-I 0 W/m 16,3 C 21,1 C 9,7 km/h (2 Bft) 95,74 %
01.07.2016 23:02 21,1 C 75 % 1014,1 hPa 0,0 l/m 4,2 km/h (1 Bft) O 92 0 min 0,025 mm 0,0 UV-I 0 W/m 16,5 C 21,1 C 6,4 km/h (2 Bft) 97,87 %
01.07.2016 23:04 20,9 C 75 % 1014,1 hPa 0,0 l/m 4,7 km/h (1 Bft) O 96 0 min 0,000 mm 0,0 UV-I 0 W/m 16,3 C 20,9 C 11,3 km/h (2 Bft) 100,00 %
01.07.2016 23:06 20,9 C 75 % 1014,0 hPa 0,0 l/m 5,2 km/h (1 Bft) O 99 0 min 0,000 mm 0,0 UV-I 0 W/m 16,3 C 20,9 C 8,0 km/h (2 Bft) 98,41 %
01.07.2016 23:08 21,1 C 74 % 1014,1 hPa 0,0 l/m 4,3 km/h (1 Bft) O 84 0 min 0,000 mm 0,0 UV-I 0 W/m 16,3 C 21,1 C 6,4 km/h (2 Bft) 97,92 %
01.07.2016 23:10 21,2 C 73 % 1014,0 hPa 0,0 l/m 6,2 km/h (2 Bft) O-NO 75 0 min 0,000 mm 0,0 UV-I 0 W/m 16,2 C 21,2 C 11,3 km/h (2 Bft) 100,00 %
01.07.2016 23:12 21,4 C 72 % 1014,0 hPa 0,0 l/m 5,2 km/h (1 Bft) O-NO 72 0 min 0,000 mm 0,0 UV-I 0 W/m 16,1 C 21,4 C 8,0 km/h (2 Bft) 100,00 %
01.07.2016 23:14 21,6 C 72 % 1014,0 hPa 0,0 l/m 4,9 km/h (1 Bft) O-NO 69 0 min 0,000 mm 0,0 UV-I 0 W/m 16,3 C 21,6 C 6,4 km/h (2 Bft) 100,00 %
01.07.2016 23:16 21,7 C 71 % 1013,9 hPa 0,0 l/m 3,6 km/h (1 Bft) O-NO 64 0 min 0,000 mm 0,0 UV-I 0 W/m 16,2 C 21,7 C 6,4 km/h (2 Bft) 100,00 %
01.07.2016 23:18 21,7 C 71 % 1014,0 hPa 0,0 l/m 4,0 km/h (1 Bft) O 84 0 min 0,000 mm 0,0 UV-I 0 W/m 16,2 C 21,7 C 6,4 km/h (2 Bft) 97,87 %
01.07.2016 23:20 21,7 C 71 % 1013,9 hPa 0,0 l/m 5,4 km/h (1 Bft) O-NO 68 0 min 0,000 mm 0,0 UV-I 0 W/m 16,2 C 21,7 C 8,0 km/h (2 Bft) 100,00 %
01.07.2016 23:22 21,8 C 71 % 1013,9 hPa 0,0 l/m 5,0 km/h (1 Bft) O-NO 71 0 min 0,000 mm 0,0 UV-I 0 W/m 16,3 C 21,8 C 8,0 km/h (2 Bft) 100,00 %
01.07.2016 23:24 21,8 C 71 % 1013,9 hPa 0,0 l/m 5,4 km/h (1 Bft) O 79 0 min 0,000 mm 0,0 UV-I 0 W/m 16,3 C 21,8 C 8,0 km/h (2 Bft) 98,00 %
01.07.2016 23:26 21,8 C 71 % 1013,9 hPa 0,0 l/m 4,0 km/h (1 Bft) O 81 0 min 0,000 mm 0,0 UV-I 0 W/m 16,3 C 21,8 C 6,4 km/h (2 Bft) 97,87 %
01.07.2016 23:28 21,7 C 71 % 1013,9 hPa 0,0 l/m 2,2 km/h (1 Bft) O 81 0 min 0,000 mm 0,0 UV-I 0 W/m 16,2 C 21,7 C 3,2 km/h (1 Bft) 100,00 %
01.07.2016 23:30 21,6 C 72 % 1013,9 hPa 0,0 l/m 1,0 km/h (0 Bft) O 81 0 min 0,000 mm 0,0 UV-I 0 W/m 16,3 C 21,6 C 1,6 km/h (1 Bft) 97,87 %
01.07.2016 23:32 21,4 C 73 % 1013,9 hPa 0,0 l/m 2,9 km/h (1 Bft) O 81 0 min 0,000 mm 0,0 UV-I 0 W/m 16,4 C 21,4 C 4,8 km/h (1 Bft) 95,74 %
01.07.2016 23:34 21,3 C 73 % 1013,9 hPa 0,0 l/m 3,7 km/h (1 Bft) O-NO 78 0 min 0,000 mm 0,0 UV-I 0 W/m 16,3 C 21,3 C 6,4 km/h (2 Bft) 100,00 %
01.07.2016 23:36 21,2 C 73 % 1013,9 hPa 0,0 l/m 3,7 km/h (1 Bft) O-NO 78 0 min 0,000 mm 0,0 UV-I 0 W/m 16,2 C 21,2 C 6,4 km/h (2 Bft) 100,00 %
01.07.2016 23:38 21,2 C 73 % 1013,8 hPa 0,0 l/m 2,7 km/h (1 Bft) O-NO 78 0 min 0,000 mm 0,0 UV-I 0 W/m 16,2 C 21,2 C 4,8 km/h (1 Bft) 97,87 %
01.07.2016 23:40 21,1 C 74 % 1013,9 hPa 0,0 l/m 3,4 km/h (1 Bft) O 96 0 min 0,000 mm 0,0 UV-I 0 W/m 16,3 C 21,1 C 6,4 km/h (2 Bft) 100,00 %
01.07.2016 23:42 21,1 C 74 % 1013,9 hPa 0,0 l/m 4,5 km/h (1 Bft) O 86 0 min 0,000 mm 0,0 UV-I 0 W/m 16,3 C 21,1 C 6,4 km/h (2 Bft) 100,00 %
01.07.2016 23:44 21,0 C 74 % 1013,9 hPa 0,0 l/m 3,5 km/h (1 Bft) O 96 0 min 0,000 mm 0,0 UV-I 0 W/m 16,2 C 21,0 C 4,8 km/h (1 Bft) 100,00 %
01.07.2016 23:46 20,9 C 74 % 1013,9 hPa 0,0 l/m 4,0 km/h (1 Bft) O-SO 107 0 min 0,000 mm 0,0 UV-I 0 W/m 16,1 C 20,9 C 6,4 km/h (2 Bft) 95,74 %
01.07.2016 23:48 20,8 C 75 % 1013,9 hPa 0,0 l/m 3,4 km/h (1 Bft) O-SO 107 0 min 0,000 mm 0,0 UV-I 0 W/m 16,2 C 20,8 C 4,8 km/h (1 Bft) 95,74 %
01.07.2016 23:50 20,8 C 74 % 1013,9 hPa 0,0 l/m 2,1 km/h (1 Bft) O-SO 107 0 min 0,000 mm 0,0 UV-I 0 W/m 16,0 C 20,8 C 4,8 km/h (1 Bft) 97,87 %
01.07.2016 23:52 21,0 C 73 % 1014,0 hPa 0,0 l/m 2,6 km/h (1 Bft) O 89 0 min 0,000 mm 0,0 UV-I 0 W/m 16,0 C 21,0 C 4,8 km/h (1 Bft) 97,92 %
01.07.2016 23:54 20,9 C 75 % 1014,0 hPa 0,0 l/m 1,6 km/h (1 Bft) O-NO 77 0 min 0,000 mm 0,0 UV-I 0 W/m 16,3 C 20,9 C 3,2 km/h (1 Bft) 97,87 %
01.07.2016 23:56 20,4 C 76 % 1014,0 hPa 0,0 l/m 1,3 km/h (1 Bft) O-NO 75 0 min 0,000 mm 0,0 UV-I 0 W/m 16,0 C 20,4 C 3,2 km/h (1 Bft) 97,87 %
01.07.2016 23:58 20,1 C 78 % 1014,0 hPa 0,0 l/m 0,8 km/h (0 Bft) O-NO 75 0 min 0,000 mm 0,0 UV-I 0 W/m 16,1 C 20,1 C 1,6 km/h (1 Bft) 97,87 %
_ Min-Zeit 02:34 15:00 23:38 - 02:10 - - - - - - 15:00 02:34 02:10 00:58
Minimum _ 15,4 C 45 % 1013,8 hPa - 0,0 km/h (0 Bft) - - - - - - 14,2 C 15,4 C 0,0 km/h (0 Bft) 91,49 %
_ Max-Zeit 15:54 02:38 08:58 00:00 15:54 - - 13:25 15:00 12:40 12:34 13:08 15:40 15:46 00:00
Maximum _ 28,1 C 94 % 1017,3 hPa 0,0 l/m 12,3 km/h
NO (3 Bft)
- - 5 min 0,585 mm 7,0 UV-I 970 W/m 19,0 C 27,8 C 22,5 km/h
N-NO (4 Bft)
100,00 %
Durchschnitt _ 21,9 C 72 % 1015,6 hPa #0,0 l/m 3,3 km/h (1 Bft) S - #11:25 h #4,953 mm 3,7 UV-I 461 W/m 16,2 C 21,8 C 6,2 km/h (2 Bft) 98,33 %